Time,TemperatureF,DewpointF,PressureIn,WindDirection,WindDirectionDegrees,WindSpeedMPH,WindSpeedGustMPH,Humidity,HourlyPrecipIn,Conditions,Clouds,dailyrainin,SoftwareType,DateUTC
2013-03-02 00:37:00,27.9,26.7,29.76,West,266,4.0,4.0,95,0.00,,,0.05,Wunderground v.1.15,2013-03-02 05:37:00,
2013-03-02 00:38:00,27.9,26.7,29.76,West,276,1.0,4.0,95,0.00,,,0.05,Wunderground v.1.15,2013-03-02 05:38:00,
2013-03-02 00:39:00,27.9,26.7,29.76,West,276,1.0,4.0,95,0.00,,,0.05,Wunderground v.1.15,2013-03-02 05:39:00,
2013-03-02 00:43:00,27.9,26.7,29.76,West,277,1.0,4.0,95,0.00,,,0.05,Wunderground v.1.15,2013-03-02 05:43:00,
2013-03-02 00:44:00,27.9,26.7,29.76,West,277,2.0,4.0,95,0.00,,,0.05,Wunderground v.1.15,2013-03-02 05:44:00,
2013-03-02 00:45:00,27.9,26.7,29.76,NNW,333,0.0,4.0,95,0.00,,,0.05,Wunderground v.1.15,2013-03-02 05:45:00,
2013-03-02 00:50:00,27.9,26.4,29.76,WSW,256,0.0,3.0,94,0.00,,,0.05,Wunderground v.1.15,2013-03-02 05:50:00,
2013-03-02 00:52:00,27.9,26.4,29.76,WNW,302,1.0,3.0,94,0.00,,,0.05,Wunderground v.1.15,2013-03-02 05:52:00,
2013-03-02 00:53:00,27.9,26.4,29.76,NW,306,0.0,3.0,94,0.00,,,0.05,Wunderground v.1.15,2013-03-02 05:53:00,
2013-03-02 00:54:00,27.9,26.4,29.76,NW,306,1.0,3.0,94,0.00,,,0.05,Wunderground v.1.15,2013-03-02 05:54:00,
2013-03-02 00:58:00,27.9,26.4,29.76,West,263,0.0,2.0,94,0.00,,,0.05,Wunderground v.1.15,2013-03-02 05:58:00,
2013-03-02 00:59:00,27.8,26.3,29.76,West,263,2.0,2.0,94,0.00,,,0.05,Wunderground v.1.15,2013-03-02 05:59:00,
2013-03-02 01:02:00,27.8,26.3,29.76,NW,320,0.0,3.0,94,0.00,,,0.05,Wunderground v.1.15,2013-03-02 06:02:00,
2013-03-02 01:04:00,27.8,26.0,29.76,WNW,296,0.0,3.0,93,0.00,,,0.05,Wunderground v.1.15,2013-03-02 06:04:00,
2013-03-02 01:05:00,27.8,26.0,29.76,WNW,296,2.0,3.0,93,0.00,,,0.05,Wunderground v.1.15,2013-03-02 06:05:00,
2013-03-02 01:08:00,27.8,26.0,29.76,WNW,294,0.0,1.0,93,0.00,,,0.05,Wunderground v.1.15,2013-03-02 06:08:00,
2013-03-02 01:09:00,27.8,26.0,29.76,WNW,294,1.0,1.0,93,0.00,,,0.05,Wunderground v.1.15,2013-03-02 06:09:00,
2013-03-02 01:10:00,27.8,26.0,29.76,WNW,289,1.0,1.0,93,0.00,,,0.05,Wunderground v.1.15,2013-03-02 06:10:00,
2013-03-02 01:13:00,27.8,26.0,29.76,WNW,289,2.0,2.0,93,0.00,,,0.05,Wunderground v.1.15,2013-03-02 06:13:00,
2013-03-02 01:15:00,27.8,26.0,29.76,WNW,289,2.0,2.0,93,0.00,,,0.05,Wunderground v.1.15,2013-03-02 06:15:00,
2013-03-02 01:17:00,27.8,26.0,29.76,WNW,289,1.0,1.0,93,0.00,,,0.05,Wunderground v.1.15,2013-03-02 06:17:00,
2013-03-02 01:18:00,27.8,26.0,29.76,WNW,298,0.0,1.0,93,0.00,,,0.05,Wunderground v.1.15,2013-03-02 06:18:00,
2013-03-02 01:23:00,27.8,26.0,29.76,WNW,298,0.0,2.0,93,0.00,,,0.05,Wunderground v.1.15,2013-03-02 06:23:00,
2013-03-02 01:24:00,27.8,26.0,29.76,WNW,298,0.0,2.0,93,0.00,,,0.05,Wunderground v.1.15,2013-03-02 06:24:00,
2013-03-02 01:26:00,27.8,26.0,29.76,WNW,289,3.0,3.0,93,0.00,,,0.05,Wunderground v.1.15,2013-03-02 06:26:00,
2013-03-02 01:28:00,27.8,25.8,29.76,WNW,287,1.0,1.0,92,0.00,,,0.05,Wunderground v.1.15,2013-03-02 06:28:00,
2013-03-02 01:32:00,27.8,25.8,29.76,WNW,288,0.0,1.0,92,0.00,,,0.05,Wunderground v.1.15,2013-03-02 06:32:00,
2013-03-02 01:33:00,27.8,25.8,29.76,WNW,288,0.0,1.0,92,0.00,,,0.05,Wunderground v.1.15,2013-03-02 06:33:00,
2013-03-02 01:34:00,27.8,25.8,29.76,WNW,288,0.0,1.0,92,0.00,,,0.05,Wunderground v.1.15,2013-03-02 06:34:00,
2013-03-02 01:37:00,27.8,25.8,29.76,WNW,288,0.0,1.0,92,0.00,,,0.05,Wunderground v.1.15,2013-03-02 06:37:00,
2013-03-02 01:39:00,27.8,25.8,29.76,WNW,294,1.0,2.0,92,0.00,,,0.05,Wunderground v.1.15,2013-03-02 06:39:00,
2013-03-02 01:40:00,27.8,25.8,29.76,WNW,292,3.0,3.0,92,0.00,,,0.05,Wunderground v.1.15,2013-03-02 06:40:00,
2013-03-02 01:42:00,27.8,25.8,29.76,WNW,292,0.0,3.0,92,0.00,,,0.05,Wunderground v.1.15,2013-03-02 06:42:00,
2013-03-02 01:47:00,27.8,25.8,29.76,West,261,0.0,1.0,92,0.00,,,0.05,Wunderground v.1.15,2013-03-02 06:47:00,
2013-03-02 01:48:00,27.8,25.8,29.76,West,261,1.0,1.0,92,0.00,,,0.05,Wunderground v.1.15,2013-03-02 06:48:00,
2013-03-02 01:49:00,27.8,25.8,29.76,WNW,286,2.0,2.0,92,0.00,,,0.05,Wunderground v.1.15,2013-03-02 06:49:00,
2013-03-02 01:55:00,27.8,25.8,29.76,SW,227,0.0,2.0,92,0.00,,,0.05,Wunderground v.1.15,2013-03-02 06:55:00,
2013-03-02 01:56:00,27.8,25.8,29.76,SW,232,0.0,2.0,92,0.00,,,0.05,Wunderground v.1.15,2013-03-02 06:56:00,
2013-03-02 01:57:00,27.8,25.8,29.76,WNW,297,0.0,1.0,92,0.00,,,0.05,Wunderground v.1.15,2013-03-02 06:57:00,
2013-03-02 01:58:00,27.7,25.7,29.76,WNW,297,1.0,1.0,92,0.00,,,0.05,Wunderground v.1.15,2013-03-02 06:58:00,
2013-03-02 02:00:00,27.8,25.5,29.76,WNW,297,0.0,2.0,91,0.00,,,0.05,Wunderground v.1.15,2013-03-02 07:00:00,
2013-03-02 02:02:00,27.7,25.4,29.76,WNW,295,1.0,2.0,91,0.00,,,0.05,Wunderground v.1.15,2013-03-02 07:02:00,
2013-03-02 02:03:00,27.7,25.4,29.75,WNW,295,1.0,2.0,91,0.00,,,0.05,Wunderground v.1.15,2013-03-02 07:03:00,
2013-03-02 02:04:00,27.8,25.5,29.75,West,269,1.0,2.0,91,0.00,,,0.05,Wunderground v.1.15,2013-03-02 07:04:00,
2013-03-02 02:07:00,27.7,25.4,29.76,WNW,296,0.0,1.0,91,0.00,,,0.05,Wunderground v.1.15,2013-03-02 07:07:00,
2013-03-02 02:09:00,27.7,25.4,29.76,WNW,295,2.0,2.0,91,0.00,,,0.05,Wunderground v.1.15,2013-03-02 07:09:00,
2013-03-02 02:12:00,27.7,25.4,29.76,WNW,295,0.0,2.0,91,0.00,,,0.05,Wunderground v.1.15,2013-03-02 07:12:00,
2013-03-02 02:13:00,27.7,25.4,29.76,WNW,295,0.0,2.0,91,0.00,,,0.05,Wunderground v.1.15,2013-03-02 07:13:00,
2013-03-02 02:14:00,27.7,25.4,29.76,WNW,295,0.0,2.0,91,0.00,,,0.05,Wunderground v.1.15,2013-03-02 07:14:00,
2013-03-02 02:15:00,27.7,25.4,29.76,WNW,288,0.0,2.0,91,0.00,,,0.05,Wunderground v.1.15,2013-03-02 07:15:00,
2013-03-02 02:18:00,27.7,25.4,29.76,WNW,288,0.0,2.0,91,0.00,,,0.05,Wunderground v.1.15,2013-03-02 07:18:00,
2013-03-02 02:20:00,27.7,25.4,29.76,WNW,284,1.0,2.0,91,0.00,,,0.05,Wunderground v.1.15,2013-03-02 07:20:00,
2013-03-02 02:23:00,27.7,25.4,29.75,WNW,296,0.0,2.0,91,0.00,,,0.05,Wunderground v.1.15,2013-03-02 07:23:00,
2013-03-02 02:24:00,27.7,25.4,29.75,WNW,286,3.0,3.0,91,0.00,,,0.05,Wunderground v.1.15,2013-03-02 07:24:00,
2013-03-02 02:25:00,27.7,25.4,29.75,WNW,286,0.0,3.0,91,0.00,,,0.05,Wunderground v.1.15,2013-03-02 07:25:00,
2013-03-02 02:28:00,27.7,25.4,29.75,WNW,286,0.0,1.0,91,0.00,,,0.05,Wunderground v.1.15,2013-03-02 07:28:00,
2013-03-02 02:29:00,27.7,25.4,29.75,WNW,286,0.0,1.0,91,0.00,,,0.05,Wunderground v.1.15,2013-03-02 07:29:00,
2013-03-02 02:30:00,27.7,25.4,29.76,WNW,286,0.0,1.0,91,0.00,,,0.05,Wunderground v.1.15,2013-03-02 07:30:00,
2013-03-02 02:32:00,27.6,25.3,29.76,WNW,286,0.0,1.0,91,0.00,,,0.05,Wunderground v.1.15,2013-03-02 07:32:00,
2013-03-02 02:33:00,27.7,25.4,29.76,WNW,286,0.0,1.0,91,0.00,,,0.05,Wunderground v.1.15,2013-03-02 07:33:00,
2013-03-02 02:35:00,27.7,25.4,29.76,WNW,286,0.0,1.0,91,0.00,,,0.05,Wunderground v.1.15,2013-03-02 07:35:00,
2013-03-02 02:38:00,27.6,25.1,29.76,West,279,0.0,3.0,90,0.00,,,0.05,Wunderground v.1.15,2013-03-02 07:38:00,
2013-03-02 02:42:00,27.6,25.1,29.76,WNW,302,2.0,3.0,90,0.00,,,0.05,Wunderground v.1.15,2013-03-02 07:42:00,
2013-03-02 02:44:00,27.6,25.1,29.76,WNW,284,0.0,3.0,90,0.00,,,0.05,Wunderground v.1.15,2013-03-02 07:44:00,
2013-03-02 02:45:00,27.6,25.1,29.76,WNW,284,1.0,3.0,90,0.00,,,0.05,Wunderground v.1.15,2013-03-02 07:45:00,
2013-03-02 02:47:00,27.6,25.1,29.76,WNW,290,4.0,4.0,90,0.00,,,0.05,Wunderground v.1.15,2013-03-02 07:47:00,
2013-03-02 02:49:00,27.5,25.0,29.76,West,281,0.0,5.0,90,0.00,,,0.05,Wunderground v.1.15,2013-03-02 07:49:00,
2013-03-02 02:50:00,27.5,25.0,29.76,West,281,0.0,5.0,90,0.00,,,0.05,Wunderground v.1.15,2013-03-02 07:50:00,
2013-03-02 02:51:00,27.5,25.0,29.76,West,281,0.0,5.0,90,0.00,,,0.05,Wunderground v.1.15,2013-03-02 07:51:00,
2013-03-02 02:53:00,27.5,25.0,29.76,West,281,0.0,5.0,90,0.00,,,0.05,Wunderground v.1.15,2013-03-02 07:53:00,
2013-03-02 02:54:00,27.5,25.0,29.76,West,281,0.0,5.0,90,0.00,,,0.05,Wunderground v.1.15,2013-03-02 07:54:00,
2013-03-02 02:57:00,27.5,25.0,29.76,West,281,0.0,5.0,90,0.00,,,0.05,Wunderground v.1.15,2013-03-02 07:57:00,
2013-03-02 02:58:00,27.5,25.0,29.76,WNW,296,0.0,1.0,90,0.00,,,0.05,Wunderground v.1.15,2013-03-02 07:58:00,
2013-03-02 02:59:00,27.5,25.0,29.76,WNW,296,0.0,1.0,90,0.00,,,0.05,Wunderground v.1.15,2013-03-02 07:59:00,
2013-03-02 03:02:00,27.5,25.0,29.76,WNW,296,1.0,2.0,90,0.00,,,0.05,Wunderground v.1.15,2013-03-02 08:02:00,
2013-03-02 03:04:00,27.5,25.0,29.76,WNW,295,0.0,3.0,90,0.00,,,0.05,Wunderground v.1.15,2013-03-02 08:04:00,
2013-03-02 03:07:00,27.5,25.0,29.76,WNW,300,2.0,3.0,90,0.00,,,0.05,Wunderground v.1.15,2013-03-02 08:07:00,
2013-03-02 03:08:00,27.5,25.0,29.76,WNW,299,1.0,2.0,90,0.00,,,0.05,Wunderground v.1.15,2013-03-02 08:08:00,
2013-03-02 03:11:00,27.4,24.9,29.76,WNW,286,2.0,3.0,90,0.00,,,0.05,Wunderground v.1.15,2013-03-02 08:11:00,
2013-03-02 03:12:00,27.4,24.9,29.76,WNW,292,2.0,4.0,90,0.00,,,0.05,Wunderground v.1.15,2013-03-02 08:12:00,
2013-03-02 03:13:00,27.4,24.9,29.76,NW,308,0.0,4.0,90,0.00,,,0.05,Wunderground v.1.15,2013-03-02 08:13:00,
2013-03-02 03:14:00,27.4,24.9,29.76,West,269,1.0,4.0,90,0.00,,,0.05,Wunderground v.1.15,2013-03-02 08:14:00,
2013-03-02 03:16:00,27.3,24.8,29.76,WNW,289,2.0,6.0,90,0.00,,,0.05,Wunderground v.1.15,2013-03-02 08:16:00,
2013-03-02 03:18:00,27.3,24.8,29.76,NW,310,2.0,2.0,90,0.00,,,0.05,Wunderground v.1.15,2013-03-02 08:18:00,
2013-03-02 03:19:00,27.3,24.8,29.76,NW,310,2.0,2.0,90,0.00,,,0.05,Wunderground v.1.15,2013-03-02 08:19:00,
2013-03-02 03:22:00,27.3,24.8,29.76,West,275,0.0,3.0,90,0.00,,,0.05,Wunderground v.1.15,2013-03-02 08:22:00,
2013-03-02 03:27:00,27.3,24.8,29.75,West,275,0.0,1.0,90,0.00,,,0.05,Wunderground v.1.15,2013-03-02 08:27:00,
2013-03-02 03:28:00,27.3,24.8,29.75,West,275,0.0,1.0,90,0.00,,,0.05,Wunderground v.1.15,2013-03-02 08:28:00,
2013-03-02 03:29:00,27.3,24.8,29.75,West,275,0.0,1.0,90,0.00,,,0.05,Wunderground v.1.15,2013-03-02 08:29:00,
2013-03-02 03:33:00,27.2,24.7,29.75,NW,324,0.0,2.0,90,0.00,,,0.05,Wunderground v.1.15,2013-03-02 08:33:00,
2013-03-02 03:34:00,27.2,24.7,29.75,NW,324,0.0,2.0,90,0.00,,,0.05,Wunderground v.1.15,2013-03-02 08:34:00,
2013-03-02 03:36:00,27.2,24.7,29.75,WNW,288,2.0,2.0,90,0.00,,,0.05,Wunderground v.1.15,2013-03-02 08:36:00,
2013-03-02 03:40:00,27.2,24.7,29.75,NW,321,2.0,4.0,90,0.00,,,0.05,Wunderground v.1.15,2013-03-02 08:40:00,
2013-03-02 03:41:00,27.1,24.6,29.75,NW,321,1.0,4.0,90,0.00,,,0.05,Wunderground v.1.15,2013-03-02 08:41:00,
2013-03-02 03:42:00,27.2,24.7,29.75,NW,320,2.0,4.0,90,0.00,,,0.05,Wunderground v.1.15,2013-03-02 08:42:00,
2013-03-02 03:45:00,27.1,24.6,29.75,West,264,2.0,5.0,90,0.00,,,0.05,Wunderground v.1.15,2013-03-02 08:45:00,
2013-03-02 03:46:00,27.1,24.6,29.75,WNW,289,1.0,5.0,90,0.00,,,0.05,Wunderground v.1.15,2013-03-02 08:46:00,
2013-03-02 03:47:00,27.1,24.6,29.75,WNW,289,0.0,5.0,90,0.00,,,0.05,Wunderground v.1.15,2013-03-02 08:47:00,
2013-03-02 03:49:00,27.1,24.6,29.75,West,263,6.0,6.0,90,0.00,,,0.05,Wunderground v.1.15,2013-03-02 08:49:00,
2013-03-02 03:52:00,27.0,24.5,29.75,WNW,296,0.0,6.0,90,0.00,,,0.05,Wunderground v.1.15,2013-03-02 08:52:00,
2013-03-02 03:53:00,27.0,24.5,29.75,WNW,296,0.0,6.0,90,0.00,,,0.05,Wunderground v.1.15,2013-03-02 08:53:00,
2013-03-02 03:54:00,27.0,24.7,29.75,NNW,348,1.0,6.0,91,0.00,,,0.05,Wunderground v.1.15,2013-03-02 08:54:00,
2013-03-02 03:58:00,27.0,24.7,29.75,NNW,328,0.0,1.0,91,0.00,,,0.05,Wunderground v.1.15,2013-03-02 08:58:00,
2013-03-02 03:59:00,27.0,24.7,29.75,NW,306,2.0,2.0,91,0.00,,,0.05,Wunderground v.1.15,2013-03-02 08:59:00,
2013-03-02 04:00:00,27.0,24.7,29.75,WNW,288,2.0,2.0,91,0.00,,,0.05,Wunderground v.1.15,2013-03-02 09:00:00,
2013-03-02 04:03:00,27.0,24.7,29.75,WNW,282,2.0,3.0,91,0.00,,,0.05,Wunderground v.1.15,2013-03-02 09:03:00,
2013-03-02 04:04:00,26.9,24.6,29.75,WNW,282,1.0,3.0,91,0.00,,,0.05,Wunderground v.1.15,2013-03-02 09:04:00,
2013-03-02 04:05:00,27.0,24.7,29.75,WNW,288,1.0,3.0,91,0.00,,,0.05,Wunderground v.1.15,2013-03-02 09:05:00,
2013-03-02 04:08:00,26.9,24.6,29.75,WNW,288,0.0,1.0,91,0.00,,,0.05,Wunderground v.1.15,2013-03-02 09:08:00,
2013-03-02 04:10:00,26.9,24.6,29.75,WNW,288,0.0,1.0,91,0.00,,,0.05,Wunderground v.1.15,2013-03-02 09:10:00,
2013-03-02 04:11:00,26.9,24.6,29.75,WNW,288,0.0,1.0,91,0.00,,,0.05,Wunderground v.1.15,2013-03-02 09:11:00,
2013-03-02 04:16:00,26.9,24.6,29.75,WNW,288,1.0,4.0,91,0.00,,,0.05,Wunderground v.1.15,2013-03-02 09:16:00,
2013-03-02 04:18:00,26.9,24.6,29.75,WNW,288,0.0,2.0,91,0.00,,,0.05,Wunderground v.1.15,2013-03-02 09:18:00,
2013-03-02 04:19:00,26.9,24.6,29.75,WNW,288,1.0,2.0,91,0.00,,,0.05,Wunderground v.1.15,2013-03-02 09:19:00,
2013-03-02 04:21:00,26.9,24.6,29.75,WNW,288,0.0,2.0,91,0.00,,,0.05,Wunderground v.1.15,2013-03-02 09:21:00,
2013-03-02 04:22:00,26.9,24.6,29.75,WNW,288,2.0,2.0,91,0.00,,,0.05,Wunderground v.1.15,2013-03-02 09:22:00,
2013-03-02 04:25:00,26.9,24.6,29.75,WNW,301,2.0,2.0,91,0.00,,,0.05,Wunderground v.1.15,2013-03-02 09:25:00,
2013-03-02 04:27:00,26.8,24.5,29.75,West,277,2.0,2.0,91,0.00,,,0.05,Wunderground v.1.15,2013-03-02 09:27:00,
2013-03-02 04:28:00,26.9,24.6,29.75,West,277,0.0,1.0,91,0.00,,,0.05,Wunderground v.1.15,2013-03-02 09:28:00,
2013-03-02 04:30:00,26.8,24.5,29.75,West,277,0.0,1.0,91,0.00,,,0.05,Wunderground v.1.15,2013-03-02 09:30:00,
2013-03-02 04:32:00,26.8,24.5,29.75,West,277,0.0,1.0,91,0.00,,,0.05,Wunderground v.1.15,2013-03-02 09:32:00,
2013-03-02 04:33:00,26.9,24.6,29.75,West,277,0.0,1.0,91,0.00,,,0.05,Wunderground v.1.15,2013-03-02 09:33:00,
2013-03-02 04:36:00,26.8,24.5,29.75,West,261,1.0,2.0,91,0.00,,,0.05,Wunderground v.1.15,2013-03-02 09:36:00,
2013-03-02 04:37:00,26.7,24.4,29.75,WSW,243,2.0,2.0,91,0.00,,,0.05,Wunderground v.1.15,2013-03-02 09:37:00,
2013-03-02 04:38:00,26.8,24.5,29.75,WSW,243,1.0,2.0,91,0.00,,,0.05,Wunderground v.1.15,2013-03-02 09:38:00,
2013-03-02 04:43:00,26.7,24.4,29.75,WSW,243,1.0,2.0,91,0.00,,,0.05,Wunderground v.1.15,2013-03-02 09:43:00,
2013-03-02 04:45:00,26.7,24.4,29.75,WSW,243,0.0,2.0,91,0.00,,,0.05,Wunderground v.1.15,2013-03-02 09:45:00,
2013-03-02 04:46:00,26.7,24.4,29.75,West,276,3.0,3.0,91,0.00,,,0.05,Wunderground v.1.15,2013-03-02 09:46:00,
2013-03-02 04:48:00,26.7,24.4,29.75,NW,309,0.0,2.0,91,0.00,,,0.05,Wunderground v.1.15,2013-03-02 09:48:00,
2013-03-02 04:50:00,26.7,24.4,29.75,NW,309,0.0,2.0,91,0.00,,,0.05,Wunderground v.1.15,2013-03-02 09:50:00,
2013-03-02 04:51:00,26.7,24.4,29.75,West,275,0.0,2.0,91,0.00,,,0.05,Wunderground v.1.15,2013-03-02 09:51:00,
2013-03-02 04:53:00,26.7,24.7,29.75,West,275,1.0,2.0,92,0.00,,,0.05,Wunderground v.1.15,2013-03-02 09:53:00,
2013-03-02 04:54:00,26.7,24.7,29.75,West,275,0.0,2.0,92,0.00,,,0.05,Wunderground v.1.15,2013-03-02 09:54:00,
2013-03-02 04:55:00,26.6,24.6,29.75,West,275,0.0,2.0,92,0.00,,,0.05,Wunderground v.1.15,2013-03-02 09:55:00,
2013-03-02 04:57:00,26.6,24.6,29.75,WNW,302,1.0,2.0,92,0.00,,,0.05,Wunderground v.1.15,2013-03-02 09:57:00,
2013-03-02 05:00:00,26.6,24.6,29.75,NW,315,1.0,2.0,92,0.00,,,0.05,Wunderground v.1.15,2013-03-02 10:00:00,
2013-03-02 05:01:00,26.6,24.6,29.75,NNW,348,0.0,2.0,92,0.00,,,0.05,Wunderground v.1.15,2013-03-02 10:01:00,
2013-03-02 05:02:00,26.6,24.6,29.75,NNW,342,1.0,2.0,92,0.00,,,0.05,Wunderground v.1.15,2013-03-02 10:02:00,
2013-03-02 05:04:00,26.6,24.6,29.75,NNW,348,0.0,2.0,92,0.00,,,0.05,Wunderground v.1.15,2013-03-02 10:04:00,
2013-03-02 05:06:00,26.6,24.6,29.74,NW,304,1.0,2.0,92,0.00,,,0.05,Wunderground v.1.15,2013-03-02 10:06:00,
2013-03-02 05:07:00,26.6,24.6,29.75,WNW,302,0.0,1.0,92,0.00,,,0.05,Wunderground v.1.15,2013-03-02 10:07:00,
2013-03-02 05:11:00,26.6,24.6,29.74,WNW,302,1.0,1.0,92,0.00,,,0.05,Wunderground v.1.15,2013-03-02 10:11:00,
2013-03-02 05:12:00,26.6,24.6,29.74,WNW,303,0.0,1.0,92,0.00,,,0.05,Wunderground v.1.15,2013-03-02 10:12:00,
2013-03-02 05:15:00,26.5,24.5,29.74,WNW,289,0.0,5.0,92,0.00,,,0.05,Wunderground v.1.15,2013-03-02 10:15:00,
2013-03-02 05:17:00,26.5,24.5,29.74,WNW,289,0.0,5.0,92,0.00,,,0.05,Wunderground v.1.15,2013-03-02 10:17:00,
2013-03-02 05:21:00,26.5,24.5,29.74,WNW,289,0.0,2.0,92,0.00,,,0.05,Wunderground v.1.15,2013-03-02 10:21:00,
2013-03-02 05:22:00,26.5,24.5,29.74,WNW,289,0.0,2.0,92,0.00,,,0.05,Wunderground v.1.15,2013-03-02 10:22:00,
2013-03-02 05:23:00,26.5,24.5,29.74,WNW,289,0.0,2.0,92,0.00,,,0.05,Wunderground v.1.15,2013-03-02 10:23:00,
2013-03-02 05:27:00,26.5,24.5,29.74,WNW,290,0.0,2.0,92,0.00,,,0.05,Wunderground v.1.15,2013-03-02 10:27:00,
2013-03-02 05:28:00,26.5,24.5,29.74,WNW,290,1.0,2.0,92,0.00,,,0.05,Wunderground v.1.15,2013-03-02 10:28:00,
2013-03-02 05:30:00,26.4,24.4,29.74,West,276,0.0,3.0,92,0.00,,,0.05,Wunderground v.1.15,2013-03-02 10:30:00,
2013-03-02 05:32:00,26.4,24.4,29.74,WNW,288,2.0,3.0,92,0.00,,,0.05,Wunderground v.1.15,2013-03-02 10:32:00,
2013-03-02 05:33:00,26.4,24.4,29.74,WNW,283,0.0,3.0,92,0.00,,,0.05,Wunderground v.1.15,2013-03-02 10:33:00,
2013-03-02 05:36:00,26.3,24.3,29.74,WNW,297,1.0,4.0,92,0.00,,,0.05,Wunderground v.1.15,2013-03-02 10:36:00,
2013-03-02 05:38:00,26.3,24.3,29.74,WNW,298,2.0,2.0,92,0.00,,,0.05,Wunderground v.1.15,2013-03-02 10:38:00,
2013-03-02 05:41:00,26.3,24.3,29.74,WSW,249,2.0,2.0,92,0.00,,,0.05,Wunderground v.1.15,2013-03-02 10:41:00,
2013-03-02 05:42:00,26.3,24.3,29.74,WSW,250,0.0,2.0,92,0.00,,,0.05,Wunderground v.1.15,2013-03-02 10:42:00,
2013-03-02 05:44:00,26.2,24.2,29.75,WSW,250,1.0,2.0,92,0.00,,,0.05,Wunderground v.1.15,2013-03-02 10:44:00,
2013-03-02 05:47:00,26.2,24.2,29.75,WNW,294,1.0,1.0,92,0.00,,,0.05,Wunderground v.1.15,2013-03-02 10:47:00,
2013-03-02 05:48:00,26.2,24.2,29.75,WNW,294,1.0,1.0,92,0.00,,,0.05,Wunderground v.1.15,2013-03-02 10:48:00,
2013-03-02 05:49:00,26.2,24.2,29.75,NNW,346,3.0,3.0,92,0.00,,,0.05,Wunderground v.1.15,2013-03-02 10:49:00,
2013-03-02 05:52:00,26.2,24.2,29.75,WNW,297,0.0,3.0,92,0.00,,,0.05,Wunderground v.1.15,2013-03-02 10:52:00,
2013-03-02 05:54:00,26.2,24.2,29.75,WSW,252,2.0,3.0,92,0.00,,,0.05,Wunderground v.1.15,2013-03-02 10:54:00,
2013-03-02 05:56:00,26.2,24.2,29.75,WNW,297,1.0,3.0,92,0.00,,,0.05,Wunderground v.1.15,2013-03-02 10:56:00,
2013-03-02 05:57:00,26.2,24.2,29.75,WNW,297,2.0,3.0,92,0.00,,,0.05,Wunderground v.1.15,2013-03-02 10:57:00,
2013-03-02 06:01:00,26.1,24.1,29.75,WNW,297,0.0,3.0,92,0.00,,,0.05,Wunderground v.1.15,2013-03-02 11:01:00,
2013-03-02 06:02:00,26.1,24.1,29.75,West,271,2.0,4.0,92,0.00,,,0.05,Wunderground v.1.15,2013-03-02 11:02:00,
2013-03-02 06:04:00,26.1,24.1,29.75,WNW,293,2.0,4.0,92,0.00,,,0.05,Wunderground v.1.15,2013-03-02 11:04:00,
2013-03-02 06:06:00,26.1,24.1,29.75,West,281,1.0,5.0,92,0.00,,,0.05,Wunderground v.1.15,2013-03-02 11:06:00,
2013-03-02 06:07:00,26.1,24.1,29.75,West,281,1.0,1.0,92,0.00,,,0.05,Wunderground v.1.15,2013-03-02 11:07:00,
2013-03-02 06:08:00,26.0,24.0,29.75,West,281,1.0,1.0,92,0.00,,,0.05,Wunderground v.1.15,2013-03-02 11:08:00,
2013-03-02 06:09:00,26.0,24.0,29.75,West,277,0.0,2.0,92,0.00,,,0.05,Wunderground v.1.15,2013-03-02 11:09:00,
2013-03-02 06:12:00,26.1,24.4,29.75,WNW,290,0.0,2.0,93,0.00,,,0.05,Wunderground v.1.15,2013-03-02 11:12:00,
2013-03-02 06:13:00,26.0,24.3,29.75,WNW,290,0.0,2.0,93,0.00,,,0.05,Wunderground v.1.15,2013-03-02 11:13:00,
2013-03-02 06:15:00,26.1,24.4,29.75,WNW,290,2.0,2.0,93,0.00,,,0.05,Wunderground v.1.15,2013-03-02 11:15:00,
2013-03-02 06:18:00,26.0,24.3,29.75,WNW,290,0.0,1.0,93,0.00,,,0.05,Wunderground v.1.15,2013-03-02 11:18:00,
2013-03-02 06:21:00,26.0,24.3,29.75,WNW,296,1.0,4.0,93,0.00,,,0.05,Wunderground v.1.15,2013-03-02 11:21:00,
2013-03-02 06:22:00,26.0,24.3,29.75,WNW,296,3.0,4.0,93,0.00,,,0.05,Wunderground v.1.15,2013-03-02 11:22:00,
2013-03-02 06:24:00,26.0,24.0,29.75,West,279,4.0,4.0,92,0.00,,,0.05,Wunderground v.1.15,2013-03-02 11:24:00,
2013-03-02 06:25:00,26.0,24.0,29.75,West,263,4.0,4.0,92,0.00,,,0.05,Wunderground v.1.15,2013-03-02 11:25:00,
2013-03-02 06:27:00,26.0,24.0,29.75,WNW,282,2.0,2.0,92,0.00,,,0.05,Wunderground v.1.15,2013-03-02 11:27:00,
2013-03-02 06:28:00,26.0,24.0,29.75,NNW,339,0.0,2.0,92,0.00,,,0.05,Wunderground v.1.15,2013-03-02 11:28:00,
2013-03-02 06:29:00,26.0,24.3,29.75,WNW,286,2.0,2.0,93,0.00,,,0.05,Wunderground v.1.15,2013-03-02 11:29:00,
2013-03-02 06:32:00,26.0,24.0,29.75,WNW,287,0.0,2.0,92,0.00,,,0.05,Wunderground v.1.15,2013-03-02 11:32:00,
2013-03-02 06:33:00,26.0,24.3,29.75,WNW,287,0.0,2.0,93,0.00,,,0.05,Wunderground v.1.15,2013-03-02 11:33:00,
2013-03-02 06:35:00,26.0,24.0,29.75,WNW,287,1.0,2.0,92,0.00,,,0.05,Wunderground v.1.15,2013-03-02 11:35:00,
2013-03-02 06:37:00,26.0,24.3,29.75,NW,315,4.0,4.0,93,0.00,,,0.05,Wunderground v.1.15,2013-03-02 11:37:00,
2013-03-02 06:39:00,26.0,24.3,29.75,WNW,302,0.0,4.0,93,0.00,,,0.05,Wunderground v.1.15,2013-03-02 11:39:00,
2013-03-02 06:40:00,26.0,24.0,29.75,WNW,302,1.0,4.0,92,0.00,,,0.05,Wunderground v.1.15,2013-03-02 11:40:00,
2013-03-02 06:43:00,26.0,24.0,29.75,WNW,295,0.0,4.0,92,0.00,,,0.05,Wunderground v.1.15,2013-03-02 11:43:00,
2013-03-02 06:45:00,26.0,24.3,29.75,WNW,295,0.0,4.0,93,0.00,,,0.05,Wunderground v.1.15,2013-03-02 11:45:00,
2013-03-02 06:46:00,26.0,24.3,29.75,WNW,295,0.0,4.0,93,0.00,,,0.05,Wunderground v.1.15,2013-03-02 11:46:00,
2013-03-02 06:49:00,26.0,24.3,29.75,WNW,295,0.0,1.0,93,0.00,,,0.05,Wunderground v.1.15,2013-03-02 11:49:00,
2013-03-02 06:50:00,26.0,24.3,29.76,WNW,295,0.0,1.0,93,0.00,,,0.05,Wunderground v.1.15,2013-03-02 11:50:00,
2013-03-02 06:51:00,26.0,24.3,29.76,WNW,295,0.0,1.0,93,0.00,,,0.05,Wunderground v.1.15,2013-03-02 11:51:00,
2013-03-02 06:55:00,26.0,24.3,29.76,WNW,289,2.0,4.0,93,0.00,,,0.05,Wunderground v.1.15,2013-03-02 11:55:00,
2013-03-02 06:56:00,26.0,24.3,29.76,WNW,289,0.0,4.0,93,0.00,,,0.05,Wunderground v.1.15,2013-03-02 11:56:00,
2013-03-02 06:57:00,26.0,24.3,29.76,WNW,289,1.0,1.0,93,0.00,,,0.05,Wunderground v.1.15,2013-03-02 11:57:00,
2013-03-02 06:59:00,26.0,24.3,29.76,WNW,286,4.0,4.0,93,0.00,,,0.05,Wunderground v.1.15,2013-03-02 11:59:00,
2013-03-02 07:00:00,25.9,23.9,29.76,West,262,1.0,4.0,92,0.00,,,0.05,Wunderground v.1.15,2013-03-02 12:00:00,
2013-03-02 07:02:00,25.9,23.9,29.75,WNW,287,3.0,4.0,92,0.00,,,0.05,Wunderground v.1.15,2013-03-02 12:02:00,
2013-03-02 07:04:00,25.9,23.9,29.76,WNW,286,0.0,4.0,92,0.00,,,0.05,Wunderground v.1.15,2013-03-02 12:04:00,
2013-03-02 07:07:00,25.8,23.8,29.76,WNW,286,3.0,4.0,92,0.00,,,0.05,Wunderground v.1.15,2013-03-02 12:07:00,
2013-03-02 07:08:00,25.8,23.8,29.76,WNW,286,2.0,2.0,92,0.00,,,0.05,Wunderground v.1.15,2013-03-02 12:08:00,
2013-03-02 07:09:00,25.8,23.8,29.76,WNW,286,0.0,2.0,92,0.00,,,0.05,Wunderground v.1.15,2013-03-02 12:09:00,
2013-03-02 07:10:00,25.8,23.8,29.76,WNW,286,0.0,2.0,92,0.00,,,0.05,Wunderground v.1.15,2013-03-02 12:10:00,
2013-03-02 07:12:00,25.8,24.1,29.76,WNW,286,0.0,2.0,93,0.00,,,0.05,Wunderground v.1.15,2013-03-02 12:12:00,
2013-03-02 07:13:00,25.7,23.7,29.76,WNW,286,2.0,2.0,92,0.00,,,0.05,Wunderground v.1.15,2013-03-02 12:13:00,
2013-03-02 07:15:00,25.7,23.7,29.76,West,277,0.0,2.0,92,0.00,,,0.05,Wunderground v.1.15,2013-03-02 12:15:00,
2013-03-02 07:18:00,25.7,23.7,29.76,West,277,0.0,1.0,92,0.00,,,0.05,Wunderground v.1.15,2013-03-02 12:18:00,
2013-03-02 07:19:00,25.7,23.7,29.76,West,277,0.0,1.0,92,0.00,,,0.05,Wunderground v.1.15,2013-03-02 12:19:00,
2013-03-02 07:20:00,25.7,23.7,29.76,West,276,0.0,1.0,92,0.00,,,0.05,Wunderground v.1.15,2013-03-02 12:20:00,
2013-03-02 07:21:00,25.8,23.8,29.76,West,276,0.0,1.0,92,0.00,,,0.05,Wunderground v.1.15,2013-03-02 12:21:00,
2013-03-02 07:23:00,25.8,24.1,29.76,West,276,0.0,1.0,93,0.00,,,0.05,Wunderground v.1.15,2013-03-02 12:23:00,
2013-03-02 07:24:00,25.8,24.1,29.76,West,276,2.0,2.0,93,0.00,,,0.05,Wunderground v.1.15,2013-03-02 12:24:00,
2013-03-02 07:25:00,25.7,23.7,29.76,West,277,1.0,2.0,92,0.00,,,0.05,Wunderground v.1.15,2013-03-02 12:25:00,
2013-03-02 07:26:00,25.7,23.7,29.76,West,277,0.0,2.0,92,0.00,,,0.05,Wunderground v.1.15,2013-03-02 12:26:00,
2013-03-02 07:28:00,25.7,23.7,29.76,NW,306,2.0,2.0,92,0.00,,,0.05,Wunderground v.1.15,2013-03-02 12:28:00,
2013-03-02 07:29:00,25.7,23.7,29.76,NW,306,0.0,2.0,92,0.00,,,0.05,Wunderground v.1.15,2013-03-02 12:29:00,
2013-03-02 07:31:00,25.6,23.6,29.76,NW,306,2.0,2.0,92,0.00,,,0.05,Wunderground v.1.15,2013-03-02 12:31:00,
2013-03-02 07:33:00,25.6,23.6,29.76,WNW,289,1.0,3.0,92,0.00,,,0.05,Wunderground v.1.15,2013-03-02 12:33:00,
2013-03-02 07:34:00,25.5,23.5,29.76,WNW,289,0.0,3.0,92,0.00,,,0.05,Wunderground v.1.15,2013-03-02 12:34:00,
2013-03-02 07:36:00,25.5,23.5,29.76,WNW,292,2.0,3.0,92,0.00,,,0.05,Wunderground v.1.15,2013-03-02 12:36:00,
2013-03-02 07:37:00,25.5,23.5,29.76,WNW,292,0.0,2.0,92,0.00,,,0.05,Wunderground v.1.15,2013-03-02 12:37:00,
2013-03-02 07:40:00,25.5,23.5,29.76,West,275,0.0,4.0,92,0.00,,,0.05,Wunderground v.1.15,2013-03-02 12:40:00,
2013-03-02 07:41:00,25.5,23.5,29.76,West,276,1.0,4.0,92,0.00,,,0.05,Wunderground v.1.15,2013-03-02 12:41:00,
2013-03-02 07:42:00,25.5,23.5,29.76,West,277,1.0,4.0,92,0.00,,,0.05,Wunderground v.1.15,2013-03-02 12:42:00,
2013-03-02 07:46:00,25.5,23.5,29.77,West,277,1.0,4.0,92,0.00,,,0.05,Wunderground v.1.15,2013-03-02 12:46:00,
2013-03-02 07:48:00,25.5,23.5,29.77,West,277,0.0,1.0,92,0.00,,,0.05,Wunderground v.1.15,2013-03-02 12:48:00,
2013-03-02 07:52:00,25.6,23.6,29.77,WNW,294,0.0,3.0,92,0.00,,,0.05,Wunderground v.1.15,2013-03-02 12:52:00,
2013-03-02 07:54:00,25.6,23.6,29.77,WNW,294,0.0,3.0,92,0.00,,,0.05,Wunderground v.1.15,2013-03-02 12:54:00,
2013-03-02 07:58:00,25.6,23.3,29.77,WNW,294,0.0,1.0,91,0.00,,,0.05,Wunderground v.1.15,2013-03-02 12:58:00,
2013-03-02 07:59:00,25.6,23.3,29.77,WNW,294,1.0,2.0,91,0.00,,,0.05,Wunderground v.1.15,2013-03-02 12:59:00,
2013-03-02 08:00:00,25.6,23.3,29.77,WNW,294,1.0,2.0,91,0.00,,,0.05,Wunderground v.1.15,2013-03-02 13:00:00,
2013-03-02 08:01:00,25.6,23.3,29.77,WNW,294,1.0,2.0,91,0.00,,,0.05,Wunderground v.1.15,2013-03-02 13:01:00,
2013-03-02 08:03:00,25.6,23.3,29.77,WNW,294,0.0,2.0,91,0.00,,,0.05,Wunderground v.1.15,2013-03-02 13:03:00,
2013-03-02 08:05:00,25.6,23.3,29.77,West,277,1.0,2.0,91,0.00,,,0.05,Wunderground v.1.15,2013-03-02 13:05:00,
2013-03-02 08:08:00,25.6,23.3,29.77,WNW,292,0.0,2.0,91,0.00,,,0.05,Wunderground v.1.15,2013-03-02 13:08:00,
2013-03-02 08:10:00,25.6,23.3,29.77,WNW,292,0.0,2.0,91,0.00,,,0.05,Wunderground v.1.15,2013-03-02 13:10:00,
2013-03-02 08:11:00,25.6,23.3,29.77,WNW,292,0.0,2.0,91,0.00,,,0.05,Wunderground v.1.15,2013-03-02 13:11:00,
2013-03-02 08:13:00,25.6,23.3,29.77,WNW,292,1.0,2.0,91,0.00,,,0.05,Wunderground v.1.15,2013-03-02 13:13:00,
2013-03-02 08:16:00,25.6,23.3,29.77,WNW,292,0.0,2.0,91,0.00,,,0.05,Wunderground v.1.15,2013-03-02 13:16:00,
2013-03-02 08:17:00,25.6,23.3,29.77,WNW,292,1.0,1.0,91,0.00,,,0.05,Wunderground v.1.15,2013-03-02 13:17:00,
2013-03-02 08:18:00,25.7,23.4,29.77,WNW,296,3.0,3.0,91,0.00,,,0.05,Wunderground v.1.15,2013-03-02 13:18:00,
2013-03-02 08:20:00,25.7,23.4,29.77,WNW,290,0.0,3.0,91,0.00,,,0.05,Wunderground v.1.15,2013-03-02 13:20:00,
2013-03-02 08:21:00,25.7,23.4,29.76,WNW,290,1.0,3.0,91,0.00,,,0.05,Wunderground v.1.15,2013-03-02 13:21:00,
2013-03-02 08:23:00,25.7,23.2,29.77,WSW,240,1.0,3.0,90,0.00,,,0.05,Wunderground v.1.15,2013-03-02 13:23:00,
2013-03-02 08:24:00,25.7,23.2,29.76,WSW,252,1.0,3.0,90,0.00,,,0.05,Wunderground v.1.15,2013-03-02 13:24:00,
2013-03-02 08:26:00,25.8,23.3,29.76,West,275,0.0,3.0,90,0.00,,,0.05,Wunderground v.1.15,2013-03-02 13:26:00,
2013-03-02 08:28:00,25.8,23.3,29.77,NW,306,3.0,4.0,90,0.00,,,0.05,Wunderground v.1.15,2013-03-02 13:28:00,
2013-03-02 08:29:00,25.8,23.3,29.77,WNW,286,1.0,4.0,90,0.00,,,0.05,Wunderground v.1.15,2013-03-02 13:29:00,
2013-03-02 08:31:00,25.8,23.3,29.77,WNW,286,1.0,4.0,90,0.00,,,0.05,Wunderground v.1.15,2013-03-02 13:31:00,
2013-03-02 08:32:00,25.8,23.3,29.77,WNW,284,1.0,4.0,90,0.00,,,0.05,Wunderground v.1.15,2013-03-02 13:32:00,
2013-03-02 08:33:00,25.9,23.4,29.77,NW,308,1.0,4.0,90,0.00,,,0.05,Wunderground v.1.15,2013-03-02 13:33:00,
2013-03-02 08:34:00,25.9,23.4,29.77,NW,308,1.0,4.0,90,0.00,,,0.05,Wunderground v.1.15,2013-03-02 13:34:00,
2013-03-02 08:36:00,25.9,23.4,29.77,NW,308,0.0,4.0,90,0.00,,,0.05,Wunderground v.1.15,2013-03-02 13:36:00,
2013-03-02 08:39:00,26.0,23.5,29.77,WNW,290,1.0,2.0,90,0.00,,,0.05,Wunderground v.1.15,2013-03-02 13:39:00,
2013-03-02 08:40:00,25.9,23.4,29.77,WNW,284,0.0,5.0,90,0.00,,,0.05,Wunderground v.1.15,2013-03-02 13:40:00,
2013-03-02 08:42:00,25.9,23.4,29.77,WNW,287,0.0,5.0,90,0.00,,,0.05,Wunderground v.1.15,2013-03-02 13:42:00,
2013-03-02 08:45:00,26.0,23.5,29.77,WNW,287,2.0,5.0,90,0.00,,,0.05,Wunderground v.1.15,2013-03-02 13:45:00,
2013-03-02 08:47:00,26.0,23.5,29.77,WNW,290,0.0,5.0,90,0.00,,,0.05,Wunderground v.1.15,2013-03-02 13:47:00,
2013-03-02 08:48:00,26.1,23.6,29.77,WNW,290,2.0,2.0,90,0.00,,,0.05,Wunderground v.1.15,2013-03-02 13:48:00,
2013-03-02 08:50:00,26.0,23.2,29.77,WNW,287,4.0,4.0,89,0.00,,,0.05,Wunderground v.1.15,2013-03-02 13:50:00,
2013-03-02 08:52:00,26.0,23.2,29.77,West,275,2.0,4.0,89,0.00,,,0.05,Wunderground v.1.15,2013-03-02 13:52:00,
2013-03-02 08:53:00,26.0,23.2,29.77,WNW,287,1.0,4.0,89,0.00,,,0.05,Wunderground v.1.15,2013-03-02 13:53:00,
2013-03-02 08:54:00,26.0,23.2,29.77,WNW,289,1.0,4.0,89,0.00,,,0.05,Wunderground v.1.15,2013-03-02 13:54:00,
2013-03-02 08:56:00,26.0,23.2,29.77,WNW,294,4.0,4.0,89,0.00,,,0.05,Wunderground v.1.15,2013-03-02 13:56:00,
2013-03-02 08:57:00,26.0,23.2,29.77,West,275,1.0,2.0,89,0.00,,,0.05,Wunderground v.1.15,2013-03-02 13:57:00,
2013-03-02 08:59:00,26.0,23.2,29.77,West,274,1.0,2.0,89,0.00,,,0.05,Wunderground v.1.15,2013-03-02 13:59:00,
2013-03-02 09:00:00,26.0,23.2,29.77,West,273,0.0,2.0,89,0.00,,,0.05,Wunderground v.1.15,2013-03-02 14:00:00,
2013-03-02 09:01:00,26.0,23.2,29.77,WNW,288,3.0,3.0,89,0.00,,,0.05,Wunderground v.1.15,2013-03-02 14:01:00,
2013-03-02 09:03:00,26.1,23.3,29.77,West,281,4.0,4.0,89,0.00,,,0.05,Wunderground v.1.15,2013-03-02 14:03:00,
2013-03-02 09:05:00,26.1,23.3,29.77,West,275,3.0,4.0,89,0.00,,,0.05,Wunderground v.1.15,2013-03-02 14:05:00,
2013-03-02 09:06:00,26.1,23.3,29.77,WSW,257,1.0,4.0,89,0.00,,,0.05,Wunderground v.1.15,2013-03-02 14:06:00,
2013-03-02 09:08:00,26.1,23.3,29.77,WSW,257,0.0,1.0,89,0.00,,,0.05,Wunderground v.1.15,2013-03-02 14:08:00,
2013-03-02 09:09:00,26.2,23.4,29.77,West,273,2.0,4.0,89,0.00,,,0.05,Wunderground v.1.15,2013-03-02 14:09:00,
2013-03-02 09:11:00,26.2,23.4,29.77,West,273,3.0,4.0,89,0.00,,,0.05,Wunderground v.1.15,2013-03-02 14:11:00,
2013-03-02 09:13:00,26.2,23.1,29.77,WNW,298,0.0,4.0,88,0.00,,,0.05,Wunderground v.1.15,2013-03-02 14:13:00,
2013-03-02 09:15:00,26.3,23.5,29.77,WNW,282,0.0,4.0,89,0.00,,,0.05,Wunderground v.1.15,2013-03-02 14:15:00,
2013-03-02 09:19:00,26.4,23.6,29.77,WNW,282,0.0,2.0,89,0.00,,,0.05,Wunderground v.1.15,2013-03-02 14:19:00,
2013-03-02 09:20:00,26.5,23.7,29.77,West,279,2.0,2.0,89,0.00,,,0.05,Wunderground v.1.15,2013-03-02 14:20:00,
2013-03-02 09:22:00,26.5,23.4,29.77,West,276,2.0,4.0,88,0.00,,,0.05,Wunderground v.1.15,2013-03-02 14:22:00,
2013-03-02 09:24:00,26.5,23.4,29.77,West,276,0.0,4.0,88,0.00,,,0.05,Wunderground v.1.15,2013-03-02 14:24:00,
2013-03-02 09:25:00,26.6,23.5,29.77,West,276,0.0,4.0,88,0.00,,,0.05,Wunderground v.1.15,2013-03-02 14:25:00,
2013-03-02 09:28:00,26.7,23.6,29.77,WNW,288,1.0,1.0,88,0.00,,,0.05,Wunderground v.1.15,2013-03-02 14:28:00,
2013-03-02 09:29:00,26.7,23.6,29.77,WNW,285,1.0,1.0,88,0.00,,,0.05,Wunderground v.1.15,2013-03-02 14:29:00,
2013-03-02 09:31:00,26.8,23.7,29.77,West,275,1.0,6.0,88,0.00,,,0.05,Wunderground v.1.15,2013-03-02 14:31:00,
2013-03-02 09:33:00,26.8,23.7,29.77,WSW,251,4.0,6.0,88,0.00,,,0.05,Wunderground v.1.15,2013-03-02 14:33:00,
2013-03-02 09:34:00,26.8,23.7,29.76,WNW,296,0.0,6.0,88,0.00,,,0.05,Wunderground v.1.15,2013-03-02 14:34:00,
2013-03-02 09:35:00,26.8,23.7,29.76,WNW,296,1.0,6.0,88,0.00,,,0.05,Wunderground v.1.15,2013-03-02 14:35:00,
2013-03-02 09:38:00,26.9,23.8,29.76,WNW,293,4.0,4.0,88,0.00,,,0.05,Wunderground v.1.15,2013-03-02 14:38:00,
2013-03-02 09:39:00,26.9,23.8,29.76,WNW,288,0.0,4.0,88,0.00,,,0.05,Wunderground v.1.15,2013-03-02 14:39:00,
2013-03-02 09:41:00,26.9,23.8,29.76,WNW,296,0.0,4.0,88,0.00,,,0.05,Wunderground v.1.15,2013-03-02 14:41:00,
2013-03-02 09:43:00,27.0,23.9,29.76,WNW,286,1.0,4.0,88,0.00,,,0.05,Wunderground v.1.15,2013-03-02 14:43:00,
2013-03-02 09:44:00,27.0,23.9,29.76,WNW,286,0.0,4.0,88,0.00,,,0.05,Wunderground v.1.15,2013-03-02 14:44:00,
2013-03-02 09:47:00,27.0,23.9,29.76,West,279,2.0,4.0,88,0.00,,,0.05,Wunderground v.1.15,2013-03-02 14:47:00,
2013-03-02 09:51:00,26.9,23.8,29.76,WNW,286,2.0,4.0,88,0.00,,,0.05,Wunderground v.1.15,2013-03-02 14:51:00,
2013-03-02 09:52:00,26.9,23.8,29.76,West,271,2.0,5.0,88,0.00,,,0.05,Wunderground v.1.15,2013-03-02 14:52:00,
2013-03-02 09:53:00,26.9,23.8,29.76,WNW,296,3.0,5.0,88,0.00,,,0.05,Wunderground v.1.15,2013-03-02 14:53:00,
2013-03-02 09:54:00,26.9,23.8,29.76,West,273,2.0,5.0,88,0.00,,,0.05,Wunderground v.1.15,2013-03-02 14:54:00,
2013-03-02 09:57:00,26.7,23.6,29.76,WNW,292,1.0,2.0,88,0.00,,,0.05,Wunderground v.1.15,2013-03-02 14:57:00,
2013-03-02 09:58:00,26.7,23.6,29.76,WNW,296,1.0,3.0,88,0.00,,,0.05,Wunderground v.1.15,2013-03-02 14:58:00,
2013-03-02 10:00:00,26.7,23.6,29.76,WNW,290,2.0,3.0,88,0.00,,,0.05,Wunderground v.1.15,2013-03-02 15:00:00,
2013-03-02 10:01:00,26.7,23.6,29.76,West,276,0.0,3.0,88,0.00,,,0.05,Wunderground v.1.15,2013-03-02 15:01:00,
2013-03-02 10:03:00,26.8,24.0,29.76,West,279,0.0,3.0,89,0.00,,,0.05,Wunderground v.1.15,2013-03-02 15:03:00,
2013-03-02 10:04:00,26.8,24.0,29.76,WNW,301,1.0,3.0,89,0.00,,,0.05,Wunderground v.1.15,2013-03-02 15:04:00,
2013-03-02 10:05:00,26.8,24.0,29.76,WNW,301,0.0,3.0,89,0.00,,,0.05,Wunderground v.1.15,2013-03-02 15:05:00,
2013-03-02 10:07:00,26.9,24.1,29.76,West,275,2.0,3.0,89,0.00,,,0.05,Wunderground v.1.15,2013-03-02 15:07:00,
2013-03-02 10:08:00,26.9,24.1,29.76,WNW,293,2.0,4.0,89,0.00,,,0.05,Wunderground v.1.15,2013-03-02 15:08:00,
2013-03-02 10:09:00,26.9,24.1,29.76,WNW,296,0.0,4.0,89,0.00,,,0.05,Wunderground v.1.15,2013-03-02 15:09:00,
2013-03-02 10:11:00,26.9,24.1,29.77,WNW,282,3.0,4.0,89,0.00,,,0.05,Wunderground v.1.15,2013-03-02 15:11:00,
2013-03-02 10:14:00,27.0,23.9,29.76,NW,308,0.0,4.0,88,0.00,,,0.05,Wunderground v.1.15,2013-03-02 15:14:00,
2013-03-02 10:15:00,27.0,24.2,29.76,NW,308,0.0,4.0,89,0.00,,,0.05,Wunderground v.1.15,2013-03-02 15:15:00,
2013-03-02 10:16:00,27.0,24.2,29.76,NW,306,2.0,4.0,89,0.00,,,0.05,Wunderground v.1.15,2013-03-02 15:16:00,
2013-03-02 10:17:00,27.0,24.2,29.76,NW,306,2.0,4.0,89,0.00,,,0.05,Wunderground v.1.15,2013-03-02 15:17:00,
2013-03-02 10:20:00,27.1,24.0,29.76,West,271,3.0,5.0,88,0.00,,,0.05,Wunderground v.1.15,2013-03-02 15:20:00,
2013-03-02 10:22:00,27.1,24.0,29.76,WNW,296,3.0,5.0,88,0.00,,,0.05,Wunderground v.1.15,2013-03-02 15:22:00,
2013-03-02 10:23:00,27.1,24.0,29.76,WNW,297,3.0,5.0,88,0.00,,,0.05,Wunderground v.1.15,2013-03-02 15:23:00,
2013-03-02 10:25:00,27.1,24.0,29.76,WNW,294,0.0,5.0,88,0.00,,,0.05,Wunderground v.1.15,2013-03-02 15:25:00,
2013-03-02 10:26:00,27.1,24.0,29.76,WNW,299,3.0,5.0,88,0.00,,,0.05,Wunderground v.1.15,2013-03-02 15:26:00,
2013-03-02 10:27:00,27.1,24.0,29.76,NW,317,2.0,2.0,88,0.00,,,0.05,Wunderground v.1.15,2013-03-02 15:27:00,
2013-03-02 10:31:00,27.1,24.0,29.76,NW,316,1.0,5.0,88,0.00,,,0.05,Wunderground v.1.15,2013-03-02 15:31:00,
2013-03-02 10:33:00,27.2,24.1,29.76,NW,317,3.0,5.0,88,0.00,,,0.05,Wunderground v.1.15,2013-03-02 15:33:00,
2013-03-02 10:36:00,27.3,24.2,29.76,WSW,250,3.0,5.0,88,0.00,,,0.05,Wunderground v.1.15,2013-03-02 15:36:00,
2013-03-02 10:38:00,27.3,24.2,29.76,WSW,253,3.0,4.0,88,0.00,,,0.05,Wunderground v.1.15,2013-03-02 15:38:00,
2013-03-02 10:39:00,27.3,24.2,29.76,West,266,3.0,4.0,88,0.00,,,0.05,Wunderground v.1.15,2013-03-02 15:39:00,
2013-03-02 10:41:00,27.3,24.2,29.76,NW,323,1.0,4.0,88,0.00,,,0.05,Wunderground v.1.15,2013-03-02 15:41:00,
2013-03-02 10:42:00,27.2,23.8,29.76,NW,322,2.0,4.0,87,0.00,,,0.05,Wunderground v.1.15,2013-03-02 15:42:00,
2013-03-02 10:44:00,27.2,24.1,29.76,NW,308,1.0,4.0,88,0.00,,,0.05,Wunderground v.1.15,2013-03-02 15:44:00,
2013-03-02 10:46:00,27.3,24.2,29.76,West,261,1.0,4.0,88,0.00,,,0.05,Wunderground v.1.15,2013-03-02 15:46:00,
2013-03-02 10:47:00,27.3,24.2,29.76,West,261,3.0,4.0,88,0.00,,,0.05,Wunderground v.1.15,2013-03-02 15:47:00,
2013-03-02 10:48:00,27.4,24.3,29.76,WNW,290,2.0,3.0,88,0.00,,,0.05,Wunderground v.1.15,2013-03-02 15:48:00,
2013-03-02 10:51:00,27.4,24.0,29.76,WNW,290,3.0,3.0,87,0.00,,,0.05,Wunderground v.1.15,2013-03-02 15:51:00,
2013-03-02 10:52:00,27.4,24.3,29.76,West,281,1.0,3.0,88,0.00,,,0.05,Wunderground v.1.15,2013-03-02 15:52:00,
2013-03-02 10:53:00,27.4,24.3,29.76,West,281,1.0,3.0,88,0.00,,,0.05,Wunderground v.1.15,2013-03-02 15:53:00,
2013-03-02 10:55:00,27.5,24.1,29.76,NW,304,1.0,4.0,87,0.00,,,0.05,Wunderground v.1.15,2013-03-02 15:55:00,
2013-03-02 10:58:00,27.6,24.2,29.76,WSW,248,1.0,3.0,87,0.00,,,0.00,Wunderground v.1.15,2013-03-02 15:58:00,
2013-03-02 10:59:00,27.6,24.2,29.76,WNW,283,3.0,3.0,87,0.00,,,0.00,Wunderground v.1.15,2013-03-02 15:59:00,
2013-03-02 11:00:00,27.6,24.2,29.76,WNW,288,3.0,4.0,87,0.00,,,0.00,Wunderground v.1.15,2013-03-02 16:00:00,
2013-03-02 11:02:00,27.6,24.2,29.76,WNW,292,3.0,4.0,87,0.00,,,0.00,Wunderground v.1.15,2013-03-02 16:02:00,
2013-03-02 11:04:00,27.7,24.3,29.76,West,279,2.0,4.0,87,0.00,,,0.00,Wunderground v.1.15,2013-03-02 16:04:00,
2013-03-02 11:06:00,27.8,24.4,29.76,WNW,300,2.0,4.0,87,0.00,,,0.00,Wunderground v.1.15,2013-03-02 16:06:00,
2013-03-02 11:07:00,27.9,24.5,29.76,West,259,3.0,4.0,87,0.00,,,0.00,Wunderground v.1.15,2013-03-02 16:07:00,
2013-03-02 11:09:00,27.9,24.5,29.76,NNW,327,0.0,3.0,87,0.00,,,0.00,Wunderground v.1.15,2013-03-02 16:09:00,
2013-03-02 11:11:00,28.1,24.7,29.75,West,274,2.0,3.0,87,0.00,,,0.00,Wunderground v.1.15,2013-03-02 16:11:00,
2013-03-02 11:12:00,28.2,24.6,29.75,NE,36,1.0,3.0,86,0.00,,,0.00,Wunderground v.1.15,2013-03-02 16:12:00,
2013-03-02 11:13:00,28.2,24.6,29.75,NW,316,3.0,3.0,86,0.00,,,0.00,Wunderground v.1.15,2013-03-02 16:13:00,
2013-03-02 11:14:00,28.3,24.6,29.75,West,269,0.0,3.0,86,0.00,,,0.00,Wunderground v.1.15,2013-03-02 16:14:00,
2013-03-02 11:16:00,28.4,24.7,29.75,West,267,1.0,3.0,86,0.00,,,0.00,Wunderground v.1.15,2013-03-02 16:16:00,
2013-03-02 11:18:00,28.5,24.6,29.75,NW,313,2.0,6.0,85,0.00,,,0.00,Wunderground v.1.15,2013-03-02 16:18:00,
2013-03-02 11:20:00,28.5,24.6,29.75,WNW,282,2.0,6.0,85,0.00,,,0.00,Wunderground v.1.15,2013-03-02 16:20:00,
2013-03-02 11:21:00,28.6,24.7,29.75,West,276,4.0,6.0,85,0.00,,,0.00,Wunderground v.1.15,2013-03-02 16:21:00,
2013-03-02 11:22:00,28.6,24.7,29.75,WNW,290,2.0,6.0,85,0.00,,,0.00,Wunderground v.1.15,2013-03-02 16:22:00,
2013-03-02 11:24:00,28.6,24.7,29.75,North,360,1.0,6.0,85,0.00,,,0.00,Wunderground v.1.15,2013-03-02 16:24:00,
2013-03-02 11:26:00,28.6,24.7,29.75,SSE,147,2.0,6.0,85,0.00,,,0.00,Wunderground v.1.15,2013-03-02 16:26:00,
2013-03-02 11:28:00,28.7,24.8,29.75,NNE,26,1.0,3.0,85,0.00,,,0.00,Wunderground v.1.15,2013-03-02 16:28:00,
2013-03-02 11:29:00,28.8,24.9,29.75,East,99,2.0,3.0,85,0.00,,,0.00,Wunderground v.1.15,2013-03-02 16:29:00,
2013-03-02 11:30:00,28.8,24.9,29.75,NNE,31,1.0,3.0,85,0.00,,,0.00,Wunderground v.1.15,2013-03-02 16:30:00,
2013-03-02 11:31:00,28.9,24.7,29.75,North,350,1.0,4.0,84,0.00,,,0.00,Wunderground v.1.15,2013-03-02 16:31:00,
2013-03-02 11:34:00,29.0,24.8,29.75,West,271,3.0,4.0,84,0.00,,,0.00,Wunderground v.1.15,2013-03-02 16:34:00,
2013-03-02 11:35:00,29.1,24.9,29.75,West,279,4.0,4.0,84,0.00,,,0.00,Wunderground v.1.15,2013-03-02 16:35:00,
2013-03-02 11:36:00,29.1,24.9,29.75,West,265,4.0,4.0,84,0.00,,,0.00,Wunderground v.1.15,2013-03-02 16:36:00,
2013-03-02 11:39:00,29.1,24.6,29.75,North,351,1.0,3.0,83,0.00,,,0.00,Wunderground v.1.15,2013-03-02 16:39:00,
2013-03-02 11:40:00,29.1,24.6,29.75,NNW,331,1.0,3.0,83,0.00,,,0.00,Wunderground v.1.15,2013-03-02 16:40:00,
2013-03-02 11:42:00,29.2,24.7,29.75,WNW,300,1.0,4.0,83,0.00,,,0.00,Wunderground v.1.15,2013-03-02 16:42:00,
2013-03-02 11:44:00,29.3,24.8,29.75,North,355,0.0,4.0,83,0.00,,,0.00,Wunderground v.1.15,2013-03-02 16:44:00,
2013-03-02 11:45:00,29.4,24.9,29.75,West,272,2.0,4.0,83,0.00,,,0.00,Wunderground v.1.15,2013-03-02 16:45:00,
2013-03-02 11:46:00,29.4,24.9,29.75,West,272,0.0,4.0,83,0.00,,,0.00,Wunderground v.1.15,2013-03-02 16:46:00,
2013-03-02 11:47:00,29.4,24.9,29.75,WSW,255,2.0,2.0,83,0.00,,,0.00,Wunderground v.1.15,2013-03-02 16:47:00,
2013-03-02 11:50:00,29.5,25.0,29.75,NNW,329,0.0,5.0,83,0.00,,,0.00,Wunderground v.1.15,2013-03-02 16:50:00,
2013-03-02 11:51:00,29.5,25.0,29.75,West,273,4.0,5.0,83,0.00,,,0.00,Wunderground v.1.15,2013-03-02 16:51:00,
2013-03-02 11:53:00,29.5,25.0,29.75,NW,304,1.0,5.0,83,0.00,,,0.00,Wunderground v.1.15,2013-03-02 16:53:00,
2013-03-02 11:56:00,29.6,25.1,29.75,West,276,0.0,5.0,83,0.00,,,0.00,Wunderground v.1.15,2013-03-02 16:56:00,
2013-03-02 11:58:00,29.6,25.1,29.75,NW,319,1.0,3.0,83,0.00,,,0.00,Wunderground v.1.15,2013-03-02 16:58:00,
2013-03-02 11:59:00,29.6,25.1,29.75,North,5,1.0,3.0,83,0.00,,,0.00,Wunderground v.1.15,2013-03-02 16:59:00,
2013-03-02 12:02:00,29.6,25.1,29.75,SW,221,2.0,3.0,83,0.00,,,0.00,Wunderground v.1.15,2013-03-02 17:02:00,
2013-03-02 12:03:00,29.7,25.2,29.74,WNW,302,1.0,3.0,83,0.00,,,0.00,Wunderground v.1.15,2013-03-02 17:03:00,
2013-03-02 12:04:00,29.7,25.2,29.75,WNW,302,2.0,3.0,83,0.00,,,0.00,Wunderground v.1.15,2013-03-02 17:04:00,
2013-03-02 12:06:00,29.7,25.2,29.74,ENE,60,2.0,3.0,83,0.00,,,0.00,Wunderground v.1.15,2013-03-02 17:06:00,
2013-03-02 12:07:00,29.8,25.3,29.75,NNW,346,2.0,2.0,83,0.00,,,0.00,Wunderground v.1.15,2013-03-02 17:07:00,
2013-03-02 12:08:00,29.8,25.3,29.74,NNW,341,1.0,4.0,83,0.00,,,0.00,Wunderground v.1.15,2013-03-02 17:08:00,
2013-03-02 12:10:00,29.8,25.3,29.74,WNW,297,0.0,4.0,83,0.00,,,0.00,Wunderground v.1.15,2013-03-02 17:10:00,
2013-03-02 12:11:00,29.9,25.4,29.74,WNW,297,0.0,4.0,83,0.00,,,0.00,Wunderground v.1.15,2013-03-02 17:11:00,
2013-03-02 12:14:00,30.0,25.2,29.74,West,278,3.0,4.0,82,0.00,,,0.00,Wunderground v.1.15,2013-03-02 17:14:00,
2013-03-02 12:16:00,30.0,25.2,29.74,NW,306,3.0,4.0,82,0.00,,,0.00,Wunderground v.1.15,2013-03-02 17:16:00,
2013-03-02 12:18:00,30.0,25.2,29.74,West,279,2.0,3.0,82,0.00,,,0.00,Wunderground v.1.15,2013-03-02 17:18:00,
2013-03-02 12:19:00,30.0,25.2,29.74,WNW,298,3.0,3.0,82,0.00,,,0.00,Wunderground v.1.15,2013-03-02 17:19:00,
2013-03-02 12:20:00,29.9,25.1,29.74,West,269,5.0,5.0,82,0.00,,,0.00,Wunderground v.1.15,2013-03-02 17:20:00,
2013-03-02 12:21:00,29.9,24.8,29.74,NNW,333,1.0,5.0,81,0.00,,,0.00,Wunderground v.1.15,2013-03-02 17:21:00,
2013-03-02 12:23:00,29.9,25.1,29.74,WNW,298,2.0,5.0,82,0.00,,,0.00,Wunderground v.1.15,2013-03-02 17:23:00,
2013-03-02 12:24:00,29.9,25.1,29.74,NNW,342,2.0,5.0,82,0.00,,,0.00,Wunderground v.1.15,2013-03-02 17:24:00,
2013-03-02 12:26:00,29.9,25.1,29.74,NNW,340,3.0,5.0,82,0.00,,,0.00,Wunderground v.1.15,2013-03-02 17:26:00,
2013-03-02 12:28:00,29.9,25.1,29.74,NNW,342,0.0,1.0,82,0.00,,,0.00,Wunderground v.1.15,2013-03-02 17:28:00,
2013-03-02 12:32:00,30.0,25.2,29.74,NW,310,0.0,3.0,82,0.00,,,0.00,Wunderground v.1.15,2013-03-02 17:32:00,
2013-03-02 12:35:00,30.1,25.3,29.74,WNW,289,3.0,3.0,82,0.00,,,0.00,Wunderground v.1.15,2013-03-02 17:35:00,
2013-03-02 12:36:00,30.0,24.9,29.74,WNW,289,1.0,3.0,81,0.00,,,0.00,Wunderground v.1.15,2013-03-02 17:36:00,
2013-03-02 12:38:00,30.0,24.9,29.74,West,280,2.0,2.0,81,0.00,,,0.00,Wunderground v.1.15,2013-03-02 17:38:00,
2013-03-02 12:39:00,30.1,25.3,29.74,West,278,1.0,3.0,82,0.00,,,0.00,Wunderground v.1.15,2013-03-02 17:39:00,
2013-03-02 12:40:00,30.1,25.3,29.74,WNW,296,1.0,3.0,82,0.00,,,0.00,Wunderground v.1.15,2013-03-02 17:40:00,
2013-03-02 12:41:00,30.2,25.4,29.73,North,355,1.0,3.0,82,0.00,,,0.00,Wunderground v.1.15,2013-03-02 17:41:00,
2013-03-02 12:44:00,30.4,25.6,29.73,WNW,292,1.0,3.0,82,0.00,,,0.00,Wunderground v.1.15,2013-03-02 17:44:00,
2013-03-02 12:48:00,30.4,25.3,29.73,WNW,301,1.0,2.0,81,0.00,,,0.01,Wunderground v.1.15,2013-03-02 17:48:00,
2013-03-02 12:49:00,30.5,25.4,29.73,NW,308,3.0,4.0,81,0.00,,,0.01,Wunderground v.1.15,2013-03-02 17:49:00,
2013-03-02 12:53:00,30.5,25.4,29.73,NW,319,2.0,4.0,81,0.00,,,0.01,Wunderground v.1.15,2013-03-02 17:53:00,
2013-03-02 12:54:00,30.5,25.1,29.73,NNW,330,1.0,4.0,80,0.00,,,0.01,Wunderground v.1.15,2013-03-02 17:54:00,
2013-03-02 12:58:00,30.6,25.2,29.73,West,273,4.0,6.0,80,0.00,,,0.01,Wunderground v.1.15,2013-03-02 17:58:00,
2013-03-02 12:59:00,30.6,25.2,29.73,North,355,3.0,6.0,80,0.00,,,0.01,Wunderground v.1.15,2013-03-02 17:59:00,
2013-03-02 13:00:00,30.5,25.1,29.73,NNW,340,2.0,6.0,80,0.00,,,0.01,Wunderground v.1.15,2013-03-02 18:00:00,
2013-03-02 13:01:00,30.6,25.2,29.73,NNW,339,1.0,6.0,80,0.00,,,0.01,Wunderground v.1.15,2013-03-02 18:01:00,
2013-03-02 13:04:00,30.7,25.6,29.73,NE,46,2.0,6.0,81,0.00,,,0.01,Wunderground v.1.15,2013-03-02 18:04:00,
2013-03-02 13:05:00,30.7,25.3,29.72,WNW,293,0.0,6.0,80,0.00,,,0.01,Wunderground v.1.15,2013-03-02 18:05:00,
2013-03-02 13:06:00,30.8,25.4,29.73,NNW,327,2.0,6.0,80,0.00,,,0.01,Wunderground v.1.15,2013-03-02 18:06:00,
2013-03-02 13:10:00,30.7,25.0,29.72,NW,325,1.0,4.0,79,0.00,,,0.01,Wunderground v.1.15,2013-03-02 18:10:00,
2013-03-02 13:12:00,30.6,24.9,29.72,NNE,14,1.0,6.0,79,0.00,,,0.01,Wunderground v.1.15,2013-03-02 18:12:00,
2013-03-02 13:15:00,30.6,25.2,29.72,NW,319,0.0,6.0,80,0.00,,,0.01,Wunderground v.1.15,2013-03-02 18:15:00,
2013-03-02 13:16:00,30.5,25.1,29.72,NW,319,0.0,6.0,80,0.00,,,0.01,Wunderground v.1.15,2013-03-02 18:16:00,
2013-03-02 13:18:00,30.5,25.1,29.72,West,281,2.0,4.0,80,0.00,,,0.01,Wunderground v.1.15,2013-03-02 18:18:00,
2013-03-02 13:19:00,30.5,25.1,29.72,WNW,292,2.0,4.0,80,0.00,,,0.01,Wunderground v.1.15,2013-03-02 18:19:00,
2013-03-02 13:21:00,30.5,25.1,29.72,WNW,297,0.0,4.0,80,0.00,,,0.01,Wunderground v.1.15,2013-03-02 18:21:00,
2013-03-02 13:22:00,30.4,25.0,29.72,WSW,241,5.0,5.0,80,0.00,,,0.01,Wunderground v.1.15,2013-03-02 18:22:00,
2013-03-02 13:23:00,30.4,25.0,29.72,WNW,284,2.0,5.0,80,0.00,,,0.01,Wunderground v.1.15,2013-03-02 18:23:00,
2013-03-02 13:24:00,30.3,24.9,29.72,West,263,1.0,5.0,80,0.00,,,0.01,Wunderground v.1.15,2013-03-02 18:24:00,
2013-03-02 13:26:00,30.3,24.9,29.72,WNW,288,2.0,5.0,80,0.00,,,0.01,Wunderground v.1.15,2013-03-02 18:26:00,
2013-03-02 13:27:00,30.3,24.9,29.72,WNW,301,2.0,2.0,80,0.00,,,0.01,Wunderground v.1.15,2013-03-02 18:27:00,
2013-03-02 13:28:00,30.4,25.0,29.72,WNW,294,3.0,3.0,80,0.00,,,0.01,Wunderground v.1.15,2013-03-02 18:28:00,
2013-03-02 13:29:00,30.4,25.0,29.72,WNW,294,0.0,3.0,80,0.00,,,0.01,Wunderground v.1.15,2013-03-02 18:29:00,
2013-03-02 13:31:00,30.5,25.1,29.72,WNW,293,3.0,3.0,80,0.00,,,0.01,Wunderground v.1.15,2013-03-02 18:31:00,
2013-03-02 13:34:00,30.4,25.0,29.72,WNW,284,3.0,5.0,80,0.00,,,0.01,Wunderground v.1.15,2013-03-02 18:34:00,
2013-03-02 13:36:00,30.4,25.0,29.72,WNW,300,0.0,5.0,80,0.00,,,0.01,Wunderground v.1.15,2013-03-02 18:36:00,
2013-03-02 13:37:00,30.4,25.0,29.72,NNW,343,3.0,5.0,80,0.00,,,0.01,Wunderground v.1.15,2013-03-02 18:37:00,
2013-03-02 13:40:00,30.5,25.1,29.72,WNW,296,0.0,3.0,80,0.00,,,0.01,Wunderground v.1.15,2013-03-02 18:40:00,
2013-03-02 13:42:00,30.5,25.1,29.72,West,262,1.0,4.0,80,0.00,,,0.01,Wunderground v.1.15,2013-03-02 18:42:00,
2013-03-02 13:43:00,30.5,25.1,29.72,WNW,292,1.0,4.0,80,0.00,,,0.01,Wunderground v.1.15,2013-03-02 18:43:00,
2013-03-02 13:47:00,30.6,25.2,29.72,WNW,288,1.0,1.0,80,0.00,,,0.01,Wunderground v.1.15,2013-03-02 18:47:00,
2013-03-02 13:49:00,30.6,25.2,29.72,West,270,2.0,4.0,80,0.00,,,0.01,Wunderground v.1.15,2013-03-02 18:49:00,
2013-03-02 13:50:00,30.5,25.1,29.72,WSW,239,1.0,4.0,80,0.00,,,0.01,Wunderground v.1.15,2013-03-02 18:50:00,
2013-03-02 13:52:00,30.5,25.1,29.72,WNW,300,1.0,4.0,80,0.00,,,0.01,Wunderground v.1.15,2013-03-02 18:52:00,
2013-03-02 13:53:00,30.5,25.1,29.71,WNW,296,2.0,4.0,80,0.00,,,0.01,Wunderground v.1.15,2013-03-02 18:53:00,
2013-03-02 13:55:00,30.4,24.7,29.72,WNW,292,3.0,5.0,79,0.00,,,0.01,Wunderground v.1.15,2013-03-02 18:55:00,
2013-03-02 13:57:00,30.3,24.6,29.72,SW,230,2.0,2.0,79,0.00,,,0.01,Wunderground v.1.15,2013-03-02 18:57:00,
2013-03-02 14:00:00,30.3,24.6,29.72,NNW,331,0.0,2.0,79,0.00,,,0.01,Wunderground v.1.15,2013-03-02 19:00:00,
2013-03-02 14:01:00,30.3,24.9,29.72,NW,315,2.0,2.0,80,0.00,,,0.01,Wunderground v.1.15,2013-03-02 19:01:00,
2013-03-02 14:02:00,30.3,24.9,29.72,West,273,0.0,3.0,80,0.00,,,0.01,Wunderground v.1.15,2013-03-02 19:02:00,
2013-03-02 14:06:00,30.3,24.6,29.72,WNW,283,0.0,4.0,79,0.00,,,0.01,Wunderground v.1.15,2013-03-02 19:06:00,
2013-03-02 14:07:00,30.3,24.6,29.72,WNW,283,2.0,4.0,79,0.00,,,0.01,Wunderground v.1.15,2013-03-02 19:07:00,
2013-03-02 14:08:00,30.2,24.8,29.72,West,273,2.0,2.0,80,0.00,,,0.01,Wunderground v.1.15,2013-03-02 19:08:00,
2013-03-02 14:12:00,30.2,24.8,29.72,West,281,2.0,6.0,80,0.00,,,0.01,Wunderground v.1.15,2013-03-02 19:12:00,
2013-03-02 14:13:00,30.2,24.8,29.72,West,281,0.0,6.0,80,0.00,,,0.01,Wunderground v.1.15,2013-03-02 19:13:00,
2013-03-02 14:14:00,30.3,24.9,29.72,West,281,3.0,6.0,80,0.00,,,0.01,Wunderground v.1.15,2013-03-02 19:14:00,
2013-03-02 14:17:00,30.3,24.9,29.72,WSW,252,3.0,5.0,80,0.00,,,0.01,Wunderground v.1.15,2013-03-02 19:17:00,
2013-03-02 14:19:00,30.3,24.6,29.72,WSW,249,2.0,5.0,79,0.00,,,0.01,Wunderground v.1.15,2013-03-02 19:19:00,
2013-03-02 14:20:00,30.3,24.6,29.71,WSW,249,0.0,5.0,79,0.00,,,0.01,Wunderground v.1.15,2013-03-02 19:20:00,
2013-03-02 14:21:00,30.3,24.6,29.71,West,280,1.0,5.0,79,0.00,,,0.01,Wunderground v.1.15,2013-03-02 19:21:00,
2013-03-02 14:23:00,30.3,24.9,29.72,NW,306,2.0,5.0,80,0.00,,,0.01,Wunderground v.1.15,2013-03-02 19:23:00,
2013-03-02 14:25:00,30.4,25.0,29.72,West,263,1.0,5.0,80,0.00,,,0.01,Wunderground v.1.15,2013-03-02 19:25:00,
2013-03-02 14:26:00,30.4,25.0,29.72,WNW,290,0.0,5.0,80,0.00,,,0.01,Wunderground v.1.15,2013-03-02 19:26:00,
2013-03-02 14:27:00,30.5,25.1,29.72,NW,312,2.0,2.0,80,0.00,,,0.01,Wunderground v.1.15,2013-03-02 19:27:00,
2013-03-02 14:29:00,30.5,25.1,29.72,NW,306,0.0,2.0,80,0.00,,,0.01,Wunderground v.1.15,2013-03-02 19:29:00,
2013-03-02 14:30:00,30.6,25.2,29.72,WSW,252,3.0,3.0,80,0.00,,,0.01,Wunderground v.1.15,2013-03-02 19:30:00,
2013-03-02 14:31:00,30.6,25.2,29.72,WNW,282,3.0,4.0,80,0.00,,,0.01,Wunderground v.1.15,2013-03-02 19:31:00,
2013-03-02 14:35:00,30.6,24.9,29.71,NNW,331,1.0,4.0,79,0.00,,,0.01,Wunderground v.1.15,2013-03-02 19:35:00,
2013-03-02 14:36:00,30.6,25.2,29.71,WSW,252,0.0,4.0,80,0.00,,,0.01,Wunderground v.1.15,2013-03-02 19:36:00,
2013-03-02 14:39:00,30.6,24.9,29.72,WNW,287,1.0,4.0,79,0.00,,,0.01,Wunderground v.1.15,2013-03-02 19:39:00,
2013-03-02 14:40:00,30.6,24.9,29.72,WSW,240,3.0,4.0,79,0.00,,,0.01,Wunderground v.1.15,2013-03-02 19:40:00,
2013-03-02 14:41:00,30.6,24.9,29.72,West,278,0.0,4.0,79,0.00,,,0.01,Wunderground v.1.15,2013-03-02 19:41:00,
2013-03-02 14:42:00,30.6,24.9,29.72,West,275,3.0,4.0,79,0.00,,,0.01,Wunderground v.1.15,2013-03-02 19:42:00,
2013-03-02 14:44:00,30.6,24.9,29.72,NW,304,2.0,4.0,79,0.00,,,0.01,Wunderground v.1.15,2013-03-02 19:44:00,
2013-03-02 14:47:00,30.7,25.3,29.72,NNW,341,0.0,4.0,80,0.00,,,0.01,Wunderground v.1.15,2013-03-02 19:47:00,
2013-03-02 14:49:00,30.8,25.4,29.72,NW,313,2.0,2.0,80,0.00,,,0.01,Wunderground v.1.15,2013-03-02 19:49:00,
2013-03-02 14:51:00,30.8,25.4,29.72,WNW,288,0.0,5.0,80,0.00,,,0.01,Wunderground v.1.15,2013-03-02 19:51:00,
2013-03-02 14:52:00,30.8,25.4,29.72,NW,317,3.0,5.0,80,0.00,,,0.01,Wunderground v.1.15,2013-03-02 19:52:00,
2013-03-02 14:54:00,30.8,25.4,29.72,West,281,2.0,5.0,80,0.00,,,0.01,Wunderground v.1.15,2013-03-02 19:54:00,
2013-03-02 14:57:00,30.8,25.4,29.72,WNW,286,0.0,1.0,80,0.00,,,0.01,Wunderground v.1.15,2013-03-02 19:57:00,
2013-03-02 14:59:00,30.9,25.5,29.72,WNW,286,1.0,2.0,80,0.00,,,0.01,Wunderground v.1.15,2013-03-02 19:59:00,
2013-03-02 15:00:00,30.9,25.5,29.72,North,355,4.0,4.0,80,0.00,,,0.01,Wunderground v.1.15,2013-03-02 20:00:00,
2013-03-02 15:03:00,30.9,25.5,29.72,WNW,295,0.0,4.0,80,0.00,,,0.01,Wunderground v.1.15,2013-03-02 20:03:00,
2013-03-02 15:04:00,30.9,25.5,29.72,SW,227,1.0,4.0,80,0.00,,,0.01,Wunderground v.1.15,2013-03-02 20:04:00,
2013-03-02 15:06:00,30.8,25.4,29.72,WNW,287,1.0,4.0,80,0.00,,,0.01,Wunderground v.1.15,2013-03-02 20:06:00,
2013-03-02 15:09:00,30.7,25.0,29.72,West,280,0.0,3.0,79,0.00,,,0.01,Wunderground v.1.15,2013-03-02 20:09:00,
2013-03-02 15:10:00,30.7,25.0,29.72,West,281,0.0,3.0,79,0.00,,,0.01,Wunderground v.1.15,2013-03-02 20:10:00,
2013-03-02 15:14:00,30.7,25.0,29.72,WNW,293,2.0,5.0,79,0.00,,,0.01,Wunderground v.1.15,2013-03-02 20:14:00,
2013-03-02 15:15:00,30.6,25.2,29.72,WNW,291,2.0,5.0,80,0.00,,,0.01,Wunderground v.1.15,2013-03-02 20:15:00,
2013-03-02 15:20:00,30.6,25.2,29.72,North,351,0.0,3.0,80,0.00,,,0.01,Wunderground v.1.15,2013-03-02 20:20:00,
2013-03-02 15:21:00,30.6,25.2,29.72,North,350,1.0,3.0,80,0.00,,,0.01,Wunderground v.1.15,2013-03-02 20:21:00,
2013-03-02 15:22:00,30.6,25.2,29.72,North,350,0.0,3.0,80,0.00,,,0.01,Wunderground v.1.15,2013-03-02 20:22:00,
2013-03-02 15:25:00,30.5,25.1,29.72,WNW,292,2.0,5.0,80,0.00,,,0.01,Wunderground v.1.15,2013-03-02 20:25:00,
2013-03-02 15:26:00,30.5,25.1,29.72,WNW,292,0.0,5.0,80,0.00,,,0.01,Wunderground v.1.15,2013-03-02 20:26:00,
2013-03-02 15:28:00,30.4,25.0,29.72,WNW,300,1.0,2.0,80,0.00,,,0.01,Wunderground v.1.15,2013-03-02 20:28:00,
2013-03-02 15:31:00,30.3,24.9,29.72,WNW,302,0.0,2.0,80,0.00,,,0.01,Wunderground v.1.15,2013-03-02 20:31:00,
2013-03-02 15:32:00,30.3,25.2,29.72,WNW,302,0.0,2.0,81,0.00,,,0.01,Wunderground v.1.15,2013-03-02 20:32:00,
2013-03-02 15:33:00,30.2,24.8,29.72,NW,318,2.0,5.0,80,0.00,,,0.01,Wunderground v.1.15,2013-03-02 20:33:00,
2013-03-02 15:37:00,30.2,25.1,29.72,WNW,287,1.0,5.0,81,0.00,,,0.01,Wunderground v.1.15,2013-03-02 20:37:00,
2013-03-02 15:38:00,30.2,25.1,29.72,West,277,1.0,2.0,81,0.00,,,0.01,Wunderground v.1.15,2013-03-02 20:38:00,
2013-03-02 15:39:00,30.1,25.0,29.72,West,277,1.0,2.0,81,0.00,,,0.01,Wunderground v.1.15,2013-03-02 20:39:00,
2013-03-02 15:42:00,30.1,25.0,29.72,West,259,1.0,5.0,81,0.00,,,0.01,Wunderground v.1.15,2013-03-02 20:42:00,
2013-03-02 15:43:00,30.0,24.9,29.72,West,273,2.0,5.0,81,0.00,,,0.01,Wunderground v.1.15,2013-03-02 20:43:00,
2013-03-02 15:44:00,29.9,24.8,29.72,West,281,0.0,5.0,81,0.00,,,0.01,Wunderground v.1.15,2013-03-02 20:44:00,
2013-03-02 15:47:00,29.9,24.8,29.72,West,276,1.0,1.0,81,0.00,,,0.01,Wunderground v.1.15,2013-03-02 20:47:00,
2013-03-02 15:48:00,29.8,24.7,29.72,West,278,1.0,1.0,81,0.00,,,0.01,Wunderground v.1.15,2013-03-02 20:48:00,
2013-03-02 15:49:00,29.8,24.7,29.72,WSW,248,2.0,2.0,81,0.00,,,0.01,Wunderground v.1.15,2013-03-02 20:49:00,
2013-03-02 15:50:00,29.8,24.7,29.72,WSW,250,0.0,2.0,81,0.00,,,0.01,Wunderground v.1.15,2013-03-02 20:50:00,
2013-03-02 15:53:00,29.7,24.6,29.72,WNW,297,1.0,2.0,81,0.00,,,0.01,Wunderground v.1.15,2013-03-02 20:53:00,
2013-03-02 15:55:00,29.7,24.6,29.72,WNW,290,3.0,3.0,81,0.00,,,0.01,Wunderground v.1.15,2013-03-02 20:55:00,
2013-03-02 15:57:00,29.7,24.6,29.72,West,278,2.0,4.0,81,0.00,,,0.01,Wunderground v.1.15,2013-03-02 20:57:00,
2013-03-02 15:59:00,29.6,24.5,29.72,WNW,289,0.0,4.0,81,0.00,,,0.01,Wunderground v.1.15,2013-03-02 20:59:00,
2013-03-02 16:01:00,29.5,24.4,29.72,WNW,292,2.0,4.0,81,0.00,,,0.01,Wunderground v.1.15,2013-03-02 21:01:00,
2013-03-02 16:03:00,29.5,24.4,29.72,WNW,300,5.0,5.0,81,0.00,,,0.01,Wunderground v.1.15,2013-03-02 21:03:00,
2013-03-02 16:05:00,29.4,24.3,29.72,West,281,3.0,5.0,81,0.00,,,0.01,Wunderground v.1.15,2013-03-02 21:05:00,
2013-03-02 16:06:00,29.4,24.3,29.72,WNW,294,2.0,5.0,81,0.00,,,0.01,Wunderground v.1.15,2013-03-02 21:06:00,
2013-03-02 16:07:00,29.4,24.3,29.72,WNW,300,4.0,4.0,81,0.00,,,0.01,Wunderground v.1.15,2013-03-02 21:07:00,
2013-03-02 16:08:00,29.4,24.3,29.72,WNW,298,1.0,4.0,81,0.00,,,0.01,Wunderground v.1.15,2013-03-02 21:08:00,
2013-03-02 16:10:00,29.4,24.3,29.72,West,277,3.0,4.0,81,0.00,,,0.01,Wunderground v.1.15,2013-03-02 21:10:00,
2013-03-02 16:12:00,29.4,24.6,29.72,NW,304,3.0,4.0,82,0.00,,,0.01,Wunderground v.1.15,2013-03-02 21:12:00,
2013-03-02 16:13:00,29.3,24.5,29.72,WNW,286,3.0,4.0,82,0.00,,,0.01,Wunderground v.1.15,2013-03-02 21:13:00,
2013-03-02 16:15:00,29.3,24.5,29.72,WNW,288,0.0,4.0,82,0.00,,,0.01,Wunderground v.1.15,2013-03-02 21:15:00,
2013-03-02 16:16:00,29.3,24.5,29.72,WNW,284,3.0,4.0,82,0.00,,,0.01,Wunderground v.1.15,2013-03-02 21:16:00,
2013-03-02 16:18:00,29.3,24.5,29.72,WNW,289,1.0,3.0,82,0.00,,,0.01,Wunderground v.1.15,2013-03-02 21:18:00,
2013-03-02 16:20:00,29.2,24.4,29.72,WNW,294,0.0,3.0,82,0.00,,,0.01,Wunderground v.1.15,2013-03-02 21:20:00,
2013-03-02 16:21:00,29.2,24.4,29.72,WNW,286,2.0,3.0,82,0.00,,,0.01,Wunderground v.1.15,2013-03-02 21:21:00,
2013-03-02 16:23:00,29.2,24.4,29.72,WNW,302,1.0,3.0,82,0.00,,,0.01,Wunderground v.1.15,2013-03-02 21:23:00,
2013-03-02 16:27:00,29.1,24.6,29.72,WNW,300,3.0,5.0,83,0.00,,,0.01,Wunderground v.1.15,2013-03-02 21:27:00,
2013-03-02 16:28:00,29.0,24.5,29.72,West,276,1.0,3.0,83,0.00,,,0.01,Wunderground v.1.15,2013-03-02 21:28:00,
2013-03-02 16:29:00,29.0,24.5,29.72,NNE,32,6.0,6.0,83,0.00,,,0.01,Wunderground v.1.15,2013-03-02 21:29:00,
2013-03-02 16:33:00,28.8,24.3,29.73,NW,307,3.0,7.0,83,0.00,,,0.01,Wunderground v.1.15,2013-03-02 21:33:00,
2013-03-02 16:34:00,28.8,24.3,29.72,WNW,290,2.0,7.0,83,0.00,,,0.01,Wunderground v.1.15,2013-03-02 21:34:00,
2013-03-02 16:35:00,28.7,24.2,29.72,West,279,3.0,7.0,83,0.00,,,0.01,Wunderground v.1.15,2013-03-02 21:35:00,
2013-03-02 16:40:00,28.6,24.4,29.73,West,279,2.0,3.0,84,0.00,,,0.01,Wunderground v.1.15,2013-03-02 21:40:00,
2013-03-02 16:41:00,28.6,24.4,29.73,West,259,3.0,3.0,84,0.00,,,0.01,Wunderground v.1.15,2013-03-02 21:41:00,
2013-03-02 16:45:00,28.4,24.5,29.73,West,276,3.0,4.0,85,0.00,,,0.01,Wunderground v.1.15,2013-03-02 21:45:00,
2013-03-02 16:46:00,28.4,24.5,29.73,West,276,0.0,4.0,85,0.00,,,0.01,Wunderground v.1.15,2013-03-02 21:46:00,
2013-03-02 16:47:00,28.4,24.5,29.73,WNW,296,0.0,4.0,85,0.00,,,0.01,Wunderground v.1.15,2013-03-02 21:47:00,
2013-03-02 16:49:00,28.4,24.5,29.73,WSW,256,2.0,2.0,85,0.00,,,0.01,Wunderground v.1.15,2013-03-02 21:49:00,
2013-03-02 16:50:00,28.4,24.5,29.73,West,276,1.0,2.0,85,0.00,,,0.01,Wunderground v.1.15,2013-03-02 21:50:00,
2013-03-02 16:51:00,28.3,24.4,29.73,West,276,1.0,2.0,85,0.00,,,0.01,Wunderground v.1.15,2013-03-02 21:51:00,
2013-03-02 16:53:00,28.3,24.4,29.73,NW,319,1.0,3.0,85,0.00,,,0.01,Wunderground v.1.15,2013-03-02 21:53:00,
2013-03-02 16:55:00,28.2,24.3,29.73,WNW,299,2.0,5.0,85,0.00,,,0.01,Wunderground v.1.15,2013-03-02 21:55:00,
2013-03-02 16:56:00,28.2,24.3,29.73,WNW,285,0.0,5.0,85,0.00,,,0.01,Wunderground v.1.15,2013-03-02 21:56:00,
2013-03-02 17:01:00,28.1,24.5,29.73,WNW,288,1.0,3.0,86,0.00,,,0.01,Wunderground v.1.15,2013-03-02 22:01:00,
2013-03-02 17:02:00,28.1,24.5,29.73,WNW,286,3.0,3.0,86,0.00,,,0.01,Wunderground v.1.15,2013-03-02 22:02:00,
2013-03-02 17:05:00,28.0,24.4,29.73,WNW,296,1.0,3.0,86,0.00,,,0.01,Wunderground v.1.15,2013-03-02 22:05:00,
2013-03-02 17:06:00,28.0,24.4,29.73,West,281,2.0,3.0,86,0.00,,,0.01,Wunderground v.1.15,2013-03-02 22:06:00,
2013-03-02 17:07:00,28.0,24.4,29.73,West,281,0.0,3.0,86,0.00,,,0.01,Wunderground v.1.15,2013-03-02 22:07:00,
2013-03-02 17:09:00,27.9,24.3,29.73,WSW,254,1.0,4.0,86,0.00,,,0.01,Wunderground v.1.15,2013-03-02 22:09:00,
2013-03-02 17:11:00,27.9,24.5,29.73,WSW,246,0.0,4.0,87,0.00,,,0.01,Wunderground v.1.15,2013-03-02 22:11:00,
2013-03-02 17:13:00,27.9,24.5,29.73,WNW,295,0.0,4.0,87,0.00,,,0.01,Wunderground v.1.15,2013-03-02 22:13:00,
2013-03-02 17:15:00,27.9,24.5,29.73,WNW,286,1.0,4.0,87,0.00,,,0.01,Wunderground v.1.15,2013-03-02 22:15:00,
2013-03-02 17:17:00,27.9,24.8,29.73,WNW,297,0.0,4.0,88,0.00,,,0.01,Wunderground v.1.15,2013-03-02 22:17:00,
2013-03-02 17:19:00,27.8,24.7,29.73,NNW,327,1.0,2.0,88,0.00,,,0.01,Wunderground v.1.15,2013-03-02 22:19:00,
2013-03-02 17:21:00,27.7,24.6,29.73,NNW,345,0.0,2.0,88,0.00,,,0.01,Wunderground v.1.15,2013-03-02 22:21:00,
2013-03-02 17:22:00,27.6,24.8,29.73,NNW,346,2.0,3.0,89,0.00,,,0.01,Wunderground v.1.15,2013-03-02 22:22:00,
2013-03-02 17:24:00,27.6,24.5,29.73,NNW,327,2.0,3.0,88,0.00,,,0.01,Wunderground v.1.15,2013-03-02 22:24:00,
2013-03-02 17:26:00,27.6,24.8,29.73,SW,225,1.0,3.0,89,0.00,,,0.01,Wunderground v.1.15,2013-03-02 22:26:00,
2013-03-02 17:28:00,27.5,24.7,29.73,WNW,291,0.0,1.0,89,0.00,,,0.01,Wunderground v.1.15,2013-03-02 22:28:00,
2013-03-02 17:29:00,27.5,24.7,29.73,WNW,293,2.0,2.0,89,0.00,,,0.01,Wunderground v.1.15,2013-03-02 22:29:00,
2013-03-02 17:32:00,27.4,24.6,29.73,West,280,0.0,3.0,89,0.00,,,0.01,Wunderground v.1.15,2013-03-02 22:32:00,
2013-03-02 17:33:00,27.4,24.6,29.74,West,280,0.0,3.0,89,0.00,,,0.01,Wunderground v.1.15,2013-03-02 22:33:00,
2013-03-02 17:34:00,27.4,24.6,29.74,NW,321,3.0,3.0,89,0.00,,,0.01,Wunderground v.1.15,2013-03-02 22:34:00,
2013-03-02 17:39:00,27.2,24.4,29.74,North,355,3.0,3.0,89,0.00,,,0.01,Wunderground v.1.15,2013-03-02 22:39:00,
2013-03-02 17:44:00,27.1,24.3,29.74,WNW,303,0.0,3.0,89,0.00,,,0.01,Wunderground v.1.15,2013-03-02 22:44:00,
2013-03-02 17:45:00,27.1,24.3,29.74,WNW,303,2.0,3.0,89,0.00,,,0.01,Wunderground v.1.15,2013-03-02 22:45:00,
2013-03-02 17:49:00,27.0,24.2,29.74,NW,307,0.0,3.0,89,0.00,,,0.01,Wunderground v.1.15,2013-03-02 22:49:00,
2013-03-02 17:51:00,27.0,24.2,29.74,NNW,330,1.0,3.0,89,0.00,,,0.01,Wunderground v.1.15,2013-03-02 22:51:00,
2013-03-02 17:56:00,26.9,24.1,29.74,NNW,341,0.0,3.0,89,0.00,,,0.01,Wunderground v.1.15,2013-03-02 22:56:00,
2013-03-02 17:57:00,26.9,24.1,29.74,NNW,341,0.0,3.0,89,0.00,,,0.01,Wunderground v.1.15,2013-03-02 22:57:00,
2013-03-02 17:59:00,26.8,24.0,29.74,WNW,282,3.0,4.0,89,0.00,,,0.01,Wunderground v.1.15,2013-03-02 22:59:00,
2013-03-02 18:02:00,26.8,24.3,29.74,West,276,3.0,5.0,90,0.00,,,0.01,Wunderground v.1.15,2013-03-02 23:02:00,
2013-03-02 18:03:00,26.7,24.2,29.74,WNW,292,1.0,5.0,90,0.00,,,0.01,Wunderground v.1.15,2013-03-02 23:03:00,
2013-03-02 18:05:00,26.7,24.2,29.74,WNW,298,2.0,5.0,90,0.00,,,0.01,Wunderground v.1.15,2013-03-02 23:05:00,
2013-03-02 18:07:00,26.7,24.2,29.75,North,349,1.0,5.0,90,0.00,,,0.01,Wunderground v.1.15,2013-03-02 23:07:00,
2013-03-02 18:09:00,26.6,24.1,29.75,NNE,16,1.0,2.0,90,0.00,,,0.01,Wunderground v.1.15,2013-03-02 23:09:00,
2013-03-02 18:10:00,26.6,24.1,29.75,WNW,296,1.0,2.0,90,0.00,,,0.01,Wunderground v.1.15,2013-03-02 23:10:00,
2013-03-02 18:12:00,26.6,24.1,29.75,NNW,329,2.0,2.0,90,0.00,,,0.01,Wunderground v.1.15,2013-03-02 23:12:00,
2013-03-02 18:16:00,26.6,24.1,29.75,NNW,338,0.0,3.0,90,0.00,,,0.01,Wunderground v.1.15,2013-03-02 23:16:00,
2013-03-02 18:18:00,26.5,24.0,29.75,WNW,286,0.0,1.0,90,0.00,,,0.01,Wunderground v.1.15,2013-03-02 23:18:00,
2013-03-02 18:19:00,26.5,24.0,29.75,West,267,3.0,3.0,90,0.00,,,0.01,Wunderground v.1.15,2013-03-02 23:19:00,
2013-03-02 18:20:00,26.5,24.0,29.75,WNW,298,0.0,3.0,90,0.00,,,0.01,Wunderground v.1.15,2013-03-02 23:20:00,
2013-03-02 18:21:00,26.5,24.0,29.75,NNW,327,1.0,3.0,90,0.00,,,0.01,Wunderground v.1.15,2013-03-02 23:21:00,
2013-03-02 18:24:00,26.4,23.9,29.75,WNW,303,2.0,3.0,90,0.00,,,0.01,Wunderground v.1.15,2013-03-02 23:24:00,
2013-03-02 18:26:00,26.4,23.9,29.75,WNW,303,0.0,3.0,90,0.00,,,0.01,Wunderground v.1.15,2013-03-02 23:26:00,
2013-03-02 18:27:00,26.4,23.9,29.75,NW,325,3.0,3.0,90,0.00,,,0.01,Wunderground v.1.15,2013-03-02 23:27:00,
2013-03-02 18:29:00,26.4,23.9,29.75,WNW,292,2.0,3.0,90,0.00,,,0.01,Wunderground v.1.15,2013-03-02 23:29:00,
2013-03-02 18:31:00,26.3,23.8,29.75,NW,325,0.0,3.0,90,0.00,,,0.01,Wunderground v.1.15,2013-03-02 23:31:00,
2013-03-02 18:33:00,26.3,23.8,29.75,NNW,347,1.0,3.0,90,0.00,,,0.01,Wunderground v.1.15,2013-03-02 23:33:00,
2013-03-02 18:34:00,26.3,23.8,29.75,West,272,1.0,3.0,90,0.00,,,0.01,Wunderground v.1.15,2013-03-02 23:34:00,
2013-03-02 18:35:00,26.3,23.8,29.75,WNW,300,1.0,3.0,90,0.00,,,0.01,Wunderground v.1.15,2013-03-02 23:35:00,
2013-03-02 18:37:00,26.2,23.7,29.75,SW,232,0.0,1.0,90,0.00,,,0.01,Wunderground v.1.15,2013-03-02 23:37:00,
2013-03-02 18:38:00,26.2,23.9,29.75,NNW,331,0.0,2.0,91,0.00,,,0.01,Wunderground v.1.15,2013-03-02 23:38:00,
2013-03-02 18:41:00,26.2,23.9,29.75,WNW,282,0.0,2.0,91,0.00,,,0.01,Wunderground v.1.15,2013-03-02 23:41:00,
2013-03-02 18:44:00,26.2,23.9,29.75,WNW,285,2.0,4.0,91,0.00,,,0.01,Wunderground v.1.15,2013-03-02 23:44:00,
2013-03-02 18:45:00,26.2,23.9,29.75,WNW,285,1.0,4.0,91,0.00,,,0.01,Wunderground v.1.15,2013-03-02 23:45:00,
2013-03-02 18:47:00,26.1,23.8,29.75,WNW,288,3.0,4.0,91,0.00,,,0.01,Wunderground v.1.15,2013-03-02 23:47:00,
2013-03-02 18:49:00,26.1,23.8,29.75,WSW,252,4.0,4.0,91,0.00,,,0.01,Wunderground v.1.15,2013-03-02 23:49:00,
2013-03-02 18:50:00,26.1,23.8,29.75,West,259,5.0,5.0,91,0.00,,,0.01,Wunderground v.1.15,2013-03-02 23:50:00,
2013-03-02 18:51:00,26.1,23.8,29.75,West,268,0.0,5.0,91,0.00,,,0.01,Wunderground v.1.15,2013-03-02 23:51:00,
2013-03-02 18:55:00,26.0,23.7,29.75,West,267,2.0,5.0,91,0.00,,,0.01,Wunderground v.1.15,2013-03-02 23:55:00,
2013-03-02 18:57:00,26.0,23.7,29.75,WNW,292,0.0,2.0,91,0.00,,,0.01,Wunderground v.1.15,2013-03-02 23:57:00,
2013-03-02 18:58:00,26.0,23.7,29.75,West,277,0.0,2.0,91,0.00,,,0.01,Wunderground v.1.15,2013-03-02 23:58:00,
2013-03-02 19:00:00,25.9,23.6,29.75,West,260,1.0,5.0,91,0.00,,,0.01,Wunderground v.1.15,2013-03-03 00:00:00,
2013-03-02 19:02:00,25.9,23.6,29.75,WNW,290,1.0,5.0,91,0.00,,,0.01,Wunderground v.1.15,2013-03-03 00:02:00,
2013-03-02 19:03:00,25.8,23.5,29.75,WNW,299,2.0,5.0,91,0.00,,,0.01,Wunderground v.1.15,2013-03-03 00:03:00,
2013-03-02 19:06:00,25.8,23.5,29.75,WNW,286,2.0,5.0,91,0.00,,,0.01,Wunderground v.1.15,2013-03-03 00:06:00,
2013-03-02 19:08:00,25.8,23.5,29.75,WNW,289,4.0,4.0,91,0.00,,,0.01,Wunderground v.1.15,2013-03-03 00:08:00,
2013-03-02 19:10:00,25.8,23.5,29.75,WNW,289,2.0,4.0,91,0.00,,,0.01,Wunderground v.1.15,2013-03-03 00:10:00,
2013-03-02 19:11:00,25.8,23.8,29.75,WNW,290,0.0,4.0,92,0.00,,,0.01,Wunderground v.1.15,2013-03-03 00:11:00,
2013-03-02 19:12:00,25.8,23.8,29.75,West,281,2.0,4.0,92,0.00,,,0.01,Wunderground v.1.15,2013-03-03 00:12:00,
2013-03-02 19:13:00,25.7,23.4,29.75,WNW,287,2.0,4.0,91,0.00,,,0.01,Wunderground v.1.15,2013-03-03 00:13:00,
2013-03-02 19:16:00,25.7,23.7,29.75,WNW,291,1.0,4.0,92,0.00,,,0.01,Wunderground v.1.15,2013-03-03 00:16:00,
2013-03-02 19:19:00,25.6,23.6,29.75,WNW,291,1.0,1.0,92,0.00,,,0.01,Wunderground v.1.15,2013-03-03 00:19:00,
2013-03-02 19:21:00,25.6,23.6,29.75,West,266,2.0,4.0,92,0.00,,,0.01,Wunderground v.1.15,2013-03-03 00:21:00,
2013-03-02 19:22:00,25.6,23.6,29.75,WNW,301,1.0,4.0,92,0.00,,,0.01,Wunderground v.1.15,2013-03-03 00:22:00,
2013-03-02 19:25:00,25.6,23.6,29.75,West,279,2.0,4.0,92,0.00,,,0.01,Wunderground v.1.15,2013-03-03 00:25:00,
2013-03-02 19:28:00,25.5,23.5,29.75,WNW,298,1.0,1.0,92,0.00,,,0.01,Wunderground v.1.15,2013-03-03 00:28:00,
2013-03-02 19:29:00,25.5,23.5,29.75,NW,313,0.0,3.0,92,0.00,,,0.01,Wunderground v.1.15,2013-03-03 00:29:00,
2013-03-02 19:30:00,25.5,23.5,29.75,NW,313,0.0,3.0,92,0.00,,,0.01,Wunderground v.1.15,2013-03-03 00:30:00,
2013-03-02 19:31:00,25.5,23.5,29.75,NW,313,0.0,3.0,92,0.00,,,0.01,Wunderground v.1.15,2013-03-03 00:31:00,
2013-03-02 19:35:00,25.4,23.4,29.75,West,269,3.0,3.0,92,0.00,,,0.01,Wunderground v.1.15,2013-03-03 00:35:00,
2013-03-02 19:36:00,25.4,23.4,29.75,WNW,302,1.0,3.0,92,0.00,,,0.01,Wunderground v.1.15,2013-03-03 00:36:00,
2013-03-02 19:37:00,25.3,23.3,29.75,WNW,302,1.0,3.0,92,0.00,,,0.01,Wunderground v.1.15,2013-03-03 00:37:00,
2013-03-02 19:40:00,25.3,23.3,29.75,WNW,284,1.0,3.0,92,0.00,,,0.01,Wunderground v.1.15,2013-03-03 00:40:00,
2013-03-02 19:41:00,25.3,23.3,29.75,WNW,284,3.0,3.0,92,0.00,,,0.01,Wunderground v.1.15,2013-03-03 00:41:00,
2013-03-02 19:42:00,25.2,23.2,29.75,WNW,284,1.0,3.0,92,0.00,,,0.01,Wunderground v.1.15,2013-03-03 00:42:00,
2013-03-02 19:44:00,25.2,23.5,29.75,WNW,299,2.0,3.0,93,0.00,,,0.01,Wunderground v.1.15,2013-03-03 00:44:00,
2013-03-02 19:46:00,25.1,23.4,29.75,WSW,249,2.0,3.0,93,0.00,,,0.01,Wunderground v.1.15,2013-03-03 00:46:00,
2013-03-02 19:47:00,25.1,23.4,29.75,NW,315,3.0,3.0,93,0.00,,,0.01,Wunderground v.1.15,2013-03-03 00:47:00,
2013-03-02 19:48:00,25.1,23.4,29.75,WSW,240,2.0,3.0,93,0.00,,,0.01,Wunderground v.1.15,2013-03-03 00:48:00,
2013-03-02 19:49:00,25.1,23.4,29.75,WSW,240,1.0,3.0,93,0.00,,,0.01,Wunderground v.1.15,2013-03-03 00:49:00,
2013-03-02 19:52:00,24.9,23.2,29.75,WSW,245,3.0,3.0,93,0.00,,,0.01,Wunderground v.1.15,2013-03-03 00:52:00,
2013-03-02 19:53:00,24.9,23.2,29.75,WNW,290,2.0,3.0,93,0.00,,,0.01,Wunderground v.1.15,2013-03-03 00:53:00,
2013-03-02 19:54:00,24.9,23.2,29.75,WNW,290,0.0,3.0,93,0.00,,,0.01,Wunderground v.1.15,2013-03-03 00:54:00,
2013-03-02 19:57:00,24.9,23.2,29.75,WNW,294,2.0,2.0,93,0.00,,,0.01,Wunderground v.1.15,2013-03-03 00:57:00,
2013-03-02 20:00:00,24.9,23.2,29.75,NW,306,3.0,5.0,93,0.00,,,0.01,Wunderground v.1.15,2013-03-03 01:00:00,
2013-03-02 20:03:00,24.9,23.2,29.75,WNW,290,0.0,5.0,93,0.00,,,0.01,Wunderground v.1.15,2013-03-03 01:03:00,
2013-03-02 20:05:00,24.8,23.1,29.75,West,263,0.0,5.0,93,0.00,,,0.01,Wunderground v.1.15,2013-03-03 01:05:00,
2013-03-02 20:06:00,24.8,23.1,29.75,WNW,287,0.0,5.0,93,0.00,,,0.01,Wunderground v.1.15,2013-03-03 01:06:00,
2013-03-02 20:09:00,24.8,23.1,29.75,WNW,287,0.0,2.0,93,0.00,,,0.01,Wunderground v.1.15,2013-03-03 01:09:00,
2013-03-02 20:10:00,24.8,23.3,29.75,NW,304,1.0,2.0,94,0.00,,,0.01,Wunderground v.1.15,2013-03-03 01:10:00,
2013-03-02 20:11:00,24.8,23.3,29.75,NW,304,0.0,2.0,94,0.00,,,0.01,Wunderground v.1.15,2013-03-03 01:11:00,
2013-03-02 20:16:00,24.8,23.1,29.76,West,262,3.0,3.0,93,0.00,,,0.01,Wunderground v.1.15,2013-03-03 01:16:00,
2013-03-02 20:17:00,24.8,23.1,29.76,WNW,287,3.0,3.0,93,0.00,,,0.01,Wunderground v.1.15,2013-03-03 01:17:00,
2013-03-02 20:18:00,24.8,23.1,29.76,WNW,302,0.0,2.0,93,0.00,,,0.01,Wunderground v.1.15,2013-03-03 01:18:00,
2013-03-02 20:22:00,24.7,23.2,29.76,WSW,241,0.0,5.0,94,0.00,,,0.01,Wunderground v.1.15,2013-03-03 01:22:00,
2013-03-02 20:23:00,24.7,23.2,29.76,West,264,1.0,5.0,94,0.00,,,0.01,Wunderground v.1.15,2013-03-03 01:23:00,
2013-03-02 20:24:00,24.7,23.2,29.76,NW,321,1.0,5.0,94,0.00,,,0.01,Wunderground v.1.15,2013-03-03 01:24:00,
2013-03-02 20:27:00,24.7,23.2,29.76,NW,321,0.0,5.0,94,0.00,,,0.01,Wunderground v.1.15,2013-03-03 01:27:00,
2013-03-02 20:28:00,24.7,23.2,29.76,NW,321,2.0,2.0,94,0.00,,,0.01,Wunderground v.1.15,2013-03-03 01:28:00,
2013-03-02 20:29:00,24.7,23.2,29.76,West,269,1.0,4.0,94,0.00,,,0.01,Wunderground v.1.15,2013-03-03 01:29:00,
2013-03-02 20:32:00,24.7,23.2,29.76,NW,304,3.0,4.0,94,0.00,,,0.01,Wunderground v.1.15,2013-03-03 01:32:00,
2013-03-02 20:34:00,24.7,23.2,29.76,WNW,296,3.0,4.0,94,0.00,,,0.01,Wunderground v.1.15,2013-03-03 01:34:00,
2013-03-02 20:35:00,24.7,23.2,29.76,NW,310,0.0,4.0,94,0.00,,,0.01,Wunderground v.1.15,2013-03-03 01:35:00,
2013-03-02 20:37:00,24.7,23.2,29.76,NW,309,0.0,2.0,94,0.00,,,0.01,Wunderground v.1.15,2013-03-03 01:37:00,
2013-03-02 20:39:00,24.7,23.2,29.76,WNW,284,0.0,2.0,94,0.00,,,0.01,Wunderground v.1.15,2013-03-03 01:39:00,
2013-03-02 20:40:00,24.7,23.2,29.76,WNW,284,0.0,2.0,94,0.00,,,0.01,Wunderground v.1.15,2013-03-03 01:40:00,
2013-03-02 20:41:00,24.7,23.2,29.76,WNW,284,0.0,2.0,94,0.00,,,0.01,Wunderground v.1.15,2013-03-03 01:41:00,
2013-03-02 20:45:00,24.7,23.2,29.76,WNW,284,0.0,2.0,94,0.00,,,0.01,Wunderground v.1.15,2013-03-03 01:45:00,
2013-03-02 20:46:00,24.7,23.2,29.76,WNW,284,0.0,2.0,94,0.00,,,0.01,Wunderground v.1.15,2013-03-03 01:46:00,
2013-03-02 20:47:00,24.7,23.2,29.76,WNW,284,0.0,2.0,94,0.00,,,0.01,Wunderground v.1.15,2013-03-03 01:47:00,
2013-03-02 20:50:00,24.7,23.2,29.76,WNW,284,0.0,0.0,94,0.00,,,0.01,Wunderground v.1.15,2013-03-03 01:50:00,
2013-03-02 20:51:00,24.7,23.2,29.76,WNW,284,1.0,1.0,94,0.00,,,0.01,Wunderground v.1.15,2013-03-03 01:51:00,
2013-03-02 20:52:00,24.7,23.2,29.76,WNW,284,0.0,1.0,94,0.00,,,0.01,Wunderground v.1.15,2013-03-03 01:52:00,
2013-03-02 20:56:00,24.7,23.2,29.76,WNW,290,0.0,2.0,94,0.00,,,0.01,Wunderground v.1.15,2013-03-03 01:56:00,
2013-03-02 20:57:00,24.7,23.2,29.76,WNW,290,0.0,0.0,94,0.00,,,0.01,Wunderground v.1.15,2013-03-03 01:57:00,
2013-03-02 20:58:00,24.8,23.3,29.76,WNW,290,0.0,2.0,94,0.00,,,0.01,Wunderground v.1.15,2013-03-03 01:58:00,
2013-03-02 21:01:00,24.8,23.3,29.76,WNW,290,3.0,4.0,94,0.00,,,0.01,Wunderground v.1.15,2013-03-03 02:01:00,
2013-03-02 21:03:00,24.8,23.3,29.76,WNW,290,1.0,4.0,94,0.00,,,0.01,Wunderground v.1.15,2013-03-03 02:03:00,
2013-03-02 21:04:00,24.8,23.3,29.76,West,265,1.0,4.0,94,0.00,,,0.01,Wunderground v.1.15,2013-03-03 02:04:00,
2013-03-02 21:07:00,24.8,23.3,29.76,West,264,2.0,4.0,94,0.00,,,0.01,Wunderground v.1.15,2013-03-03 02:07:00,
2013-03-02 21:09:00,24.8,23.3,29.76,NW,306,1.0,2.0,94,0.00,,,0.01,Wunderground v.1.15,2013-03-03 02:09:00,
2013-03-02 21:12:00,24.7,23.2,29.76,WNW,297,0.0,2.0,94,0.00,,,0.01,Wunderground v.1.15,2013-03-03 02:12:00,
2013-03-02 21:13:00,24.7,23.2,29.76,WNW,297,1.0,2.0,94,0.00,,,0.01,Wunderground v.1.15,2013-03-03 02:13:00,
2013-03-02 21:14:00,24.7,23.5,29.76,WNW,297,0.0,2.0,95,0.00,,,0.01,Wunderground v.1.15,2013-03-03 02:14:00,
2013-03-02 21:15:00,24.7,23.5,29.76,WNW,297,0.0,2.0,95,0.00,,,0.01,Wunderground v.1.15,2013-03-03 02:15:00,
2013-03-02 21:19:00,24.7,23.5,29.76,NW,313,0.0,3.0,95,0.00,,,0.01,Wunderground v.1.15,2013-03-03 02:19:00,
2013-03-02 21:21:00,24.6,23.4,29.76,NW,313,0.0,3.0,95,0.00,,,0.01,Wunderground v.1.15,2013-03-03 02:21:00,
2013-03-02 21:25:00,24.6,23.4,29.76,NW,313,0.0,3.0,95,0.00,,,0.01,Wunderground v.1.15,2013-03-03 02:25:00,
2013-03-02 21:26:00,24.6,23.4,29.76,NW,313,1.0,3.0,95,0.00,,,0.01,Wunderground v.1.15,2013-03-03 02:26:00,
2013-03-02 21:27:00,24.6,23.4,29.76,NW,313,0.0,0.0,95,0.00,,,0.01,Wunderground v.1.15,2013-03-03 02:27:00,
2013-03-02 21:30:00,24.5,23.3,29.76,NW,319,1.0,2.0,95,0.00,,,0.01,Wunderground v.1.15,2013-03-03 02:30:00,
2013-03-02 21:32:00,24.5,23.3,29.76,NW,319,0.0,2.0,95,0.00,,,0.01,Wunderground v.1.15,2013-03-03 02:32:00,
2013-03-02 21:35:00,24.4,23.2,29.76,NW,314,0.0,3.0,95,0.00,,,0.01,Wunderground v.1.15,2013-03-03 02:35:00,
2013-03-02 21:37:00,24.4,22.9,29.76,NNW,327,0.0,0.0,94,0.00,,,0.01,Wunderground v.1.15,2013-03-03 02:37:00,
2013-03-02 21:38:00,24.4,22.9,29.76,NNW,327,2.0,2.0,94,0.00,,,0.01,Wunderground v.1.15,2013-03-03 02:38:00,
2013-03-02 21:41:00,24.2,22.7,29.76,West,279,2.0,2.0,94,0.00,,,0.01,Wunderground v.1.15,2013-03-03 02:41:00,
2013-03-02 21:43:00,24.2,22.7,29.76,West,279,2.0,3.0,94,0.00,,,0.01,Wunderground v.1.15,2013-03-03 02:43:00,
2013-03-02 21:47:00,24.0,22.8,29.76,NW,307,1.0,4.0,95,0.00,,,0.01,Wunderground v.1.15,2013-03-03 02:47:00,
2013-03-02 21:48:00,24.0,22.8,29.76,NE,40,1.0,2.0,95,0.00,,,0.01,Wunderground v.1.15,2013-03-03 02:48:00,
2013-03-02 21:49:00,24.0,22.8,29.76,NE,43,0.0,2.0,95,0.00,,,0.01,Wunderground v.1.15,2013-03-03 02:49:00,
2013-03-02 21:50:00,24.0,22.8,29.76,WSW,246,0.0,2.0,95,0.00,,,0.01,Wunderground v.1.15,2013-03-03 02:50:00,
2013-03-02 21:54:00,23.9,22.4,29.76,North,355,1.0,2.0,94,0.00,,,0.01,Wunderground v.1.15,2013-03-03 02:54:00,
2013-03-02 21:56:00,23.9,22.4,29.76,WNW,290,1.0,3.0,94,0.00,,,0.01,Wunderground v.1.15,2013-03-03 02:56:00,
2013-03-02 21:57:00,23.9,22.4,29.76,WNW,302,0.0,3.0,94,0.00,,,0.01,Wunderground v.1.15,2013-03-03 02:57:00,
2013-03-02 21:59:00,23.9,22.4,29.76,WNW,294,0.0,1.0,94,0.00,,,0.01,Wunderground v.1.15,2013-03-03 02:59:00,
2013-03-02 22:00:00,23.9,22.4,29.76,WNW,294,0.0,1.0,94,0.00,,,0.01,Wunderground v.1.15,2013-03-03 03:00:00,
2013-03-02 22:02:00,23.9,22.4,29.76,WNW,294,0.0,2.0,94,0.00,,,0.01,Wunderground v.1.15,2013-03-03 03:02:00,
2013-03-02 22:07:00,23.7,22.2,29.76,WNW,291,0.0,1.0,94,0.00,,,0.01,Wunderground v.1.15,2013-03-03 03:07:00,
2013-03-02 22:08:00,23.8,22.3,29.76,WNW,291,0.0,1.0,94,0.00,,,0.01,Wunderground v.1.15,2013-03-03 03:08:00,
2013-03-02 22:12:00,23.6,22.1,29.75,WNW,288,0.0,3.0,94,0.00,,,0.01,Wunderground v.1.15,2013-03-03 03:12:00,
2013-03-02 22:13:00,23.6,22.1,29.75,WNW,292,0.0,3.0,94,0.00,,,0.01,Wunderground v.1.15,2013-03-03 03:13:00,
2013-03-02 22:14:00,23.6,22.1,29.75,WNW,292,1.0,3.0,94,0.00,,,0.01,Wunderground v.1.15,2013-03-03 03:14:00,
2013-03-02 22:18:00,23.4,21.9,29.75,West,281,1.0,1.0,94,0.00,,,0.01,Wunderground v.1.15,2013-03-03 03:18:00,
2013-03-02 22:19:00,23.4,21.9,29.75,West,281,1.0,1.0,94,0.00,,,0.01,Wunderground v.1.15,2013-03-03 03:19:00,
2013-03-02 22:20:00,23.4,21.9,29.75,West,281,0.0,1.0,94,0.00,,,0.01,Wunderground v.1.15,2013-03-03 03:20:00,
2013-03-02 22:24:00,23.4,21.9,29.75,West,281,0.0,1.0,94,0.00,,,0.01,Wunderground v.1.15,2013-03-03 03:24:00,
2013-03-02 22:25:00,23.4,22.2,29.75,WSW,254,1.0,2.0,95,0.00,,,0.01,Wunderground v.1.15,2013-03-03 03:25:00,
2013-03-02 22:26:00,23.4,22.2,29.75,WNW,294,0.0,2.0,95,0.00,,,0.01,Wunderground v.1.15,2013-03-03 03:26:00,
2013-03-02 22:29:00,23.3,21.8,29.75,WNW,296,0.0,3.0,94,0.00,,,0.01,Wunderground v.1.15,2013-03-03 03:29:00,
2013-03-02 22:30:00,23.3,21.8,29.75,WNW,296,1.0,3.0,94,0.00,,,0.01,Wunderground v.1.15,2013-03-03 03:30:00,
2013-03-02 22:31:00,23.3,21.8,29.75,WNW,296,2.0,3.0,94,0.00,,,0.01,Wunderground v.1.15,2013-03-03 03:31:00,
2013-03-02 22:32:00,23.3,21.8,29.75,WNW,296,3.0,3.0,94,0.00,,,0.01,Wunderground v.1.15,2013-03-03 03:32:00,
2013-03-02 22:35:00,23.2,21.7,29.75,NW,304,0.0,4.0,94,0.00,,,0.01,Wunderground v.1.15,2013-03-03 03:35:00,
2013-03-02 22:36:00,23.2,21.7,29.75,West,280,2.0,4.0,94,0.00,,,0.01,Wunderground v.1.15,2013-03-03 03:36:00,
2013-03-02 22:41:00,23.1,21.6,29.75,West,278,3.0,4.0,94,0.00,,,0.01,Wunderground v.1.15,2013-03-03 03:41:00,
2013-03-02 22:42:00,23.0,21.5,29.75,West,278,1.0,4.0,94,0.00,,,0.01,Wunderground v.1.15,2013-03-03 03:42:00,
2013-03-02 22:43:00,23.1,21.6,29.75,NW,310,2.0,4.0,94,0.00,,,0.01,Wunderground v.1.15,2013-03-03 03:43:00,
2013-03-02 22:44:00,23.0,21.5,29.75,NW,310,0.0,4.0,94,0.00,,,0.01,Wunderground v.1.15,2013-03-03 03:44:00,
2013-03-02 22:46:00,23.0,21.5,29.75,WSW,256,3.0,4.0,94,0.00,,,0.01,Wunderground v.1.15,2013-03-03 03:46:00,
2013-03-02 22:48:00,23.0,21.5,29.75,NNW,333,0.0,3.0,94,0.00,,,0.01,Wunderground v.1.15,2013-03-03 03:48:00,
2013-03-02 22:51:00,22.9,21.4,29.75,WNW,295,3.0,3.0,94,0.00,,,0.01,Wunderground v.1.15,2013-03-03 03:51:00,
2013-03-02 22:53:00,22.9,21.4,29.75,WNW,299,0.0,3.0,94,0.00,,,0.01,Wunderground v.1.15,2013-03-03 03:53:00,
2013-03-02 22:55:00,22.9,21.4,29.75,WNW,283,1.0,3.0,94,0.00,,,0.01,Wunderground v.1.15,2013-03-03 03:55:00,
2013-03-02 22:58:00,22.9,21.4,29.75,WNW,283,2.0,2.0,94,0.00,,,0.01,Wunderground v.1.15,2013-03-03 03:58:00,
2013-03-02 22:59:00,22.9,21.4,29.75,WNW,283,1.0,2.0,94,0.00,,,0.01,Wunderground v.1.15,2013-03-03 03:59:00,
2013-03-02 23:00:00,22.9,21.4,29.75,WNW,283,0.0,2.0,94,0.00,,,0.01,Wunderground v.1.15,2013-03-03 04:00:00,
2013-03-02 23:02:00,22.9,21.4,29.75,WNW,283,1.0,2.0,94,0.00,,,0.01,Wunderground v.1.15,2013-03-03 04:02:00,
2013-03-02 23:03:00,22.9,21.4,29.75,WNW,283,0.0,2.0,94,0.00,,,0.01,Wunderground v.1.15,2013-03-03 04:03:00,
2013-03-02 23:05:00,22.9,21.4,29.75,NE,48,3.0,3.0,94,0.00,,,0.01,Wunderground v.1.15,2013-03-03 04:05:00,
2013-03-02 23:08:00,23.0,21.5,29.75,WNW,300,0.0,1.0,94,0.00,,,0.01,Wunderground v.1.15,2013-03-03 04:08:00,
2013-03-02 23:10:00,22.9,21.4,29.75,WNW,293,0.0,2.0,94,0.00,,,0.01,Wunderground v.1.15,2013-03-03 04:10:00,
2013-03-02 23:11:00,22.9,21.4,29.75,WNW,293,0.0,2.0,94,0.00,,,0.01,Wunderground v.1.15,2013-03-03 04:11:00,
2013-03-02 23:14:00,22.9,21.4,29.74,WNW,293,0.0,2.0,94,0.00,,,0.01,Wunderground v.1.15,2013-03-03 04:14:00,
2013-03-02 23:16:00,22.9,21.4,29.74,WNW,293,1.0,3.0,94,0.00,,,0.01,Wunderground v.1.15,2013-03-03 04:16:00,
2013-03-02 23:17:00,22.9,21.4,29.74,WNW,286,3.0,3.0,94,0.00,,,0.01,Wunderground v.1.15,2013-03-03 04:17:00,
2013-03-02 23:20:00,22.8,21.3,29.74,WNW,286,1.0,3.0,94,0.00,,,0.01,Wunderground v.1.15,2013-03-03 04:20:00,
2013-03-02 23:21:00,22.8,21.3,29.74,WNW,286,0.0,3.0,94,0.00,,,0.01,Wunderground v.1.15,2013-03-03 04:21:00,
2013-03-02 23:23:00,22.8,21.3,29.74,West,260,2.0,3.0,94,0.00,,,0.01,Wunderground v.1.15,2013-03-03 04:23:00,
2013-03-02 23:26:00,22.7,21.2,29.74,WNW,290,2.0,3.0,94,0.00,,,0.01,Wunderground v.1.15,2013-03-03 04:26:00,
2013-03-02 23:28:00,22.7,21.2,29.74,West,281,0.0,1.0,94,0.00,,,0.01,Wunderground v.1.15,2013-03-03 04:28:00,
2013-03-02 23:29:00,22.7,21.2,29.74,West,281,1.0,1.0,94,0.00,,,0.01,Wunderground v.1.15,2013-03-03 04:29:00,
2013-03-02 23:32:00,22.7,21.2,29.74,West,281,0.0,1.0,94,0.00,,,0.01,Wunderground v.1.15,2013-03-03 04:32:00,
2013-03-02 23:34:00,22.7,21.2,29.74,West,281,0.0,1.0,94,0.00,,,0.01,Wunderground v.1.15,2013-03-03 04:34:00,
2013-03-02 23:35:00,22.7,21.2,29.74,West,281,0.0,1.0,94,0.00,,,0.01,Wunderground v.1.15,2013-03-03 04:35:00,
2013-03-02 23:36:00,22.7,21.2,29.74,West,281,0.0,1.0,94,0.00,,,0.01,Wunderground v.1.15,2013-03-03 04:36:00,
2013-03-02 23:39:00,22.7,21.2,29.74,West,280,2.0,2.0,94,0.00,,,0.01,Wunderground v.1.15,2013-03-03 04:39:00,
2013-03-02 23:41:00,22.7,21.2,29.74,NNW,345,0.0,2.0,94,0.00,,,0.01,Wunderground v.1.15,2013-03-03 04:41:00,
2013-03-02 23:42:00,22.7,21.2,29.74,NNW,347,0.0,2.0,94,0.00,,,0.01,Wunderground v.1.15,2013-03-03 04:42:00,
2013-03-02 23:44:00,22.7,21.2,29.74,NNW,347,0.0,2.0,94,0.00,,,0.01,Wunderground v.1.15,2013-03-03 04:44:00,
2013-03-02 23:45:00,22.7,21.2,29.74,NW,319,0.0,2.0,94,0.00,,,0.01,Wunderground v.1.15,2013-03-03 04:45:00,
2013-03-02 23:47:00,22.6,21.1,29.74,West,261,0.0,4.0,94,0.00,,,0.01,Wunderground v.1.15,2013-03-03 04:47:00,
2013-03-02 23:48:00,22.6,21.1,29.74,West,261,0.0,1.0,94,0.00,,,0.01,Wunderground v.1.15,2013-03-03 04:48:00,
2013-03-02 23:49:00,22.6,21.1,29.74,West,261,0.0,1.0,94,0.00,,,0.01,Wunderground v.1.15,2013-03-03 04:49:00,
2013-03-02 23:51:00,22.6,21.1,29.74,West,261,0.0,1.0,94,0.00,,,0.01,Wunderground v.1.15,2013-03-03 04:51:00,
2013-03-02 23:55:00,22.7,21.2,29.74,WSW,243,0.0,3.0,94,0.00,,,0.01,Wunderground v.1.15,2013-03-03 04:55:00,
2013-03-02 23:56:00,22.6,21.1,29.74,WSW,243,0.0,3.0,94,0.00,,,0.01,Wunderground v.1.15,2013-03-03 04:56:00,
2013-03-02 23:58:00,22.6,21.1,29.74,NW,325,0.0,1.0,94,0.00,,,0.01,Wunderground v.1.15,2013-03-03 04:58:00,